GFSFLT2_con_sbcape_000.txt.gz
CAPE
0 0 0 0 0 0 0 0 0 0 0 0 0 0 0 25 66 74 145 267 376 228 200 240 394 596 805 1039 1119 1219 1417 1544
0 0 0 0 0 0 0 0 0 0 0 0 0 0 0 0 12 39 82 297 333 450 435 411 461 690 887 1085 1240 1246 1149 839
0 0 0 0 0 0 0 0 0 0 0 0 0 0 0 0 1 2 17 130 224 595 707 634 584 697 949 1172 1331 1278 864 354
0 0 0 0 0 0 0 0 0 0 0 0 0 0 0 0 0 0 2 90 127 562 773 809 714 738 990 1219 1379 1439 838 179
0 0 0 0 0 0 0 0 0 0 0 0 0 0 0 0 0 0 2 31 79 272 651 714 651 875 1045 1244 1308 1399 826 46
0 0 0 0 0 0 0 0 0 0 0 0 0 0 0 0 0 0 0 8 68 96 263 422 395 616 986 1199 1213 1103 462 41
0 0 0 0 0 0 0 0 0 0 0 0 0 0 0 0 0 0 0 0 14 95 107 159 221 298 628 887 1032 829 413 143
0 0 0 0 0 0 0 0 0 0 0 0 0 0 0 0 0 0 0 0 0 10 52 83 97 126 527 794 921 854 559 374
0 0 0 0 0 0 0 0 0 0 0 0 0 0 0 0 0 0 0 0 0 0 0 0 0 49 403 699 839 818 708 678
0 0 0 0 0 0 0 0 0 0 0 0 0 0 0 0 0 0 0 0 0 0 0 0 0 50 294 556 794 870 814 747
0 0 0 11 0 10 42 13 0 1 0 0 0 0 0 0 0 0 0 5 35 0 0 1 56 154 370 572 798 805 828 513
0 0 1 0 0 0 3 16 0 0 0 0 0 0 0 0 0 0 0 0 0 5 13 174 249 403 448 507 691 739 608 495
0 2 8 0 0 0 41 0 0 0 0 0 0 0 0 0 0 0 29 113 124 376 512 378 289 391 426 365 577 550 365 383
0 23 117 0 18 22 1 0 0 0 0 0 0 0 0 0 2 4 32 117 239 384 544 492 280 461 302 471 274 298 270 206
0 0 0 0 0 0 0 0 0 0 0 1 0 3 54 46 52 103 160 264 524 678 582 233 137 188 235 51 165 126 1 0
0 0 0 0 0 0 0 0 0 0 0 0 1 159 236 330 266 173 184 248 380 446 291 39 25 5 0 51 60 0 0 0
0 0 0 0 0 0 0 0 0 0 0 0 0 0 0 0 346 279 133 188 248 231 112 49 22 1 0 18 0 0 0 0
0 0 0 0 0 0 0 0 0 0 0 0 0 0 0 0 1 260 254 239 163 80 155 20 0 0 0 0 0 0 1 1
0 0 0 0 0 0 0 0 0 0 0 0 0 0 0 0 0 108 233 331 182 31 1 0 0 0 0 0 0 0 3 0

GFSFLT2_con_sbcape_003.txt.gz
CAPE
0 0 0 0 0 0 0 0 0 0 0 0 0 3 4 58 138 317 366 542 618 659 809 1143 1274 1599 1795 2104 2331 2262 1997 2778
0 0 0 0 0 0 0 0 0 0 0 0 0 13 67 42 134 326 561 674 707 1003 1009 1211 1221 1511 1644 2005 2254 2350 1980 2324
0 0 0 0 0 0 0 0 0 0 0 0 13 257 77 83 115 294 614 828 1030 1202 1069 1197 1270 1336 1721 1709 2110 2042 2124 2679
0 0 0 0 0 0 0 0 0 0 0 0 0 0 2 24 43 105 650 997 953 1053 1079 1108 1348 1254 1446 1603 1646 2154 2500 2656
0 0 0 0 0 0 0 0 0 0 0 0 0 0 0 31 87 119 395 661 955 1038 1336 1327 1384 1798 1501 1807 1740 1875 2301 2124
0 0 0 0 0 0 0 0 0 0 0 0 0 3 23 34 149 127 189 743 884 1013 1709 1914 2062 2135 2083 1850 1868 1912 1949 2096
0 0 0 0 0 0 0 0 0 0 0 0 57 218 230 226 318 109 166 438 881 1005 1800 2009 2095 1870 1895 1751 2075 2215 2320 2133
0 0 0 0 0 0 0 0 0 0 0 0 0 66 148 134 297 207 220 335 700 913 1016 1255 1499 1464 1456 1678 1947 2114 2133 1970
2 0 0 0 0 0 0 0 0 0 0 0 0 9 123 210 331 503 493 415 520 742 902 924 982 1131 1154 1387 1563 1785 1883 1732
71 0 6 0 0 0 0 0 0 0 0 0 19 57 19 13 161 386 531 523 407 255 406 556 520 671 935 1284 1654 1791 1815 1632
2 35 13 0 0 0 0 0 0 0 0 0 0 22 53 0 0 77 157 404 480 344 350 474 392 639 974 1257 1582 1779 1792 1719
84 36 33 70 56 19 33 0 0 0 28 36 17 73 200 1 5 66 278 570 591 590 583 820 764 851 1213 1390 1573 1737 1748 1681
322 181 50 86 47 75 120 73 0 4 14 30 120 160 73 161 454 490 430 707 919 964 1004 1125 1349 1392 1602 1658 1770 1785 1688 1316
456 366 165 11 152 283 179 31 44 65 99 82 93 131 238 317 453 653 788 945 1230 1482 1585 1358 1514 1839 1881 1877 1670 1394 1421 1044
270 264 7 0 16 115 163 147 125 207 163 179 232 328 395 546 635 814 1200 1401 1372 1379 1500 1381 1465 1596 1506 1116 843 1018 1044 818
75 92 0 0 0 12 88 118 167 257 259 343 237 446 922 1013 892 759 1018 1388 1627 1778 1660 1282 969 798 932 844 1090 1008 788 835
348 39 0 0 0 0 0 0 0 6 76 114 139 93 450 1346 1384 1274 1359 1338 1550 1818 1833 1457 1079 1052 969 1074 1051 1099 1023 1059
123 9 41 0 0 0 0 0 0 0 0 0 9 49 83 339 1104 1415 1487 1606 1702 1692 1261 941 1023 964 931 1060 1121 1161 1052 918
0 0 0 0 0 0 0 0 0 0 0 0 0 0 0 0 18 235 528 958 1736 1575 1308 1059 949 894 889 783 725 762 615 538

GFSFLT2_con_sbcape_006.txt.gz
CAPE
0 0 0 0 0 0 27 48 28 2 1 0 1 16 3 29 82 199 623 594 354 598 795 1066 1328 1816 2425 3132 3002 3029 2976 3411
0 0 0 0 0 0 7 77 47 8 16 0 16 0 0 13 98 239 555 670 496 571 770 1013 1280 1567 1957 2311 2967 2788 2771 2934
0 0 0 0 0 0 1 10 17 34 3 0 0 0 0 0 110 150 453 806 787 658 709 1060 1152 1365 1789 2156 2444 2701 2706 3320
0 0 0 0 0 0 6 4 12 17 1 2 0 0 0 0 5 9 240 745 962 931 971 1035 1302 1255 1444 1769 2170 2532 3125 3354
0 0 0 0 0 0 0 1 110 27 1 0 0 0 0 48 102 114 443 790 1107 1126 1309 1374 1376 1721 1559 1850 2019 2190 2602 2756
0 0 0 0 0 0 0 3 3 8 36 16 0 0 0 1 112 195 728 916 1228 1256 1570 1661 2055 2732 2687 1972 2073 2235 2331 2709
0 0 0 0 0 0 0 0 4 0 13 17 6 0 0 0 3 213 851 946 1328 1502 2240 2758 2630 2686 2566 2382 2373 2379 2567 2653
43 8 7 3 0 0 0 0 0 0 0 1 2 0 0 0 0 244 960 1052 1418 1698 1936 2359 2377 2566 2647 2642 2501 2637 2798 2872
158 91 65 57 11 8 0 0 0 0 0 0 0 0 0 7 128 276 914 1117 1314 1679 1863 2291 2389 2668 2647 2643 2609 2701 2921 2963
359 252 191 2 2 1 0 0 0 0 0 0 0 0 18 125 69 296 949 1146 1283 1410 1773 1965 1907 2039 2160 2339 2546 2684 2899 2915
274 342 185 64 123 21 4 0 0 0 0 0 0 5 347 231 220 544 1037 1363 1377 1339 1576 1802 1538 1781 1916 2062 2289 2463 2655 2714
333 234 182 494 385 275 318 62 0 0 0 0 0 64 0 385 146 295 814 1029 1181 1094 1365 1348 1319 1474 1778 1914 2244 2473 2615 2652
331 365 295 526 276 459 395 44 11 0 21 19 112 357 553 395 446 631 996 1176 1267 1210 1127 1351 1325 1546 1714 1903 2145 2341 2554 2650
450 507 424 217 491 617 688 542 486 369 395 436 549 783 901 894 1099 1214 1131 976 910 1408 1750 1743 1782 2053 2280 2385 2544 2670 2714 2558
431 348 376 216 265 443 624 686 630 663 626 685 679 759 862 905 839 913 875 864 1007 1544 1943 2141 2347 2390 2625 3092 2726 2676 2128 1731
686 404 182 165 177 350 544 628 567 553 507 530 499 534 593 705 899 1199 1337 1213 1245 1447 1878 2344 2389 2450 2750 2147 2234 2377 2121 2087
413 290 134 95 95 49 101 327 449 459 468 579 945 1014 1328 1397 1330 1340 1435 1347 1280 1470 2065 2282 2262 2258 2062 1973 1846 1834 1726 1733
231 255 157 0 0 0 0 1 33 137 160 181 322 470 837 1273 1653 1687 1863 1889 1978 2016 2291 2359 2322 2236 2175 1780 1985 1854 1378 1306
271 57 0 0 0 0 0 0 0 0 0 0 0 2 17 105 142 229 934 1363 2183 1949 2067 2069 2156 2130 2056 1995 1768 1597 1448 1375

GFSFLT2_con_sbcape_009.txt.gz
CAPE
0 0 0 0 0 0 29 77 69 62 58 34 41 90 75 45 25 42 175 588 514 373 630 1365 1633 2466 2883 3740 4310 4436 3615 4760
0 0 0 0 0 0 13 104 88 78 79 61 71 37 8 40 14 22 52 473 628 459 528 1037 1137 1800 2693 3396 4113 3847 4038 4279
0 0 0 0 0 0 4 44 69 85 85 69 130 44 14 8 12 38 58 326 684 604 553 733 872 1417 2009 2645 3579 3838 3938 3937
0 0 0 0 0 0 23 45 28 120 81 28 22 21 28 12 5 6 49 197 582 724 636 740 1110 1054 1299 1635 1915 2942 3573 4228
0 0 0 0 0 0 0 4 138 84 7 52 47 38 81 63 10 43 69 96 480 703 862 1022 999 1360 982 1533 1299 1777 3082 3239
0 0 0 0 0 0 0 0 3 12 50 97 78 37 13 7 0 22 88 424 448 887 1362 1594 1790 1988 1748 1525 1133 1526 2113 2428
0 1 9 2 0 0 0 0 0 0 46 51 168 105 43 21 3 0 13 626 923 1210 2428 2792 2693 2774 2574 2070 2250 1988 2876 2907
1 0 0 2 4 1 0 0 0 0 0 28 44 102 64 2 6 0 0 49 1021 1389 1749 2932 3147 3510 3239 3038 3053 2867 3675 3580
85 40 67 77 0 0 2 2 0 0 0 0 23 89 124 23 4 8 26 87 857 1352 1818 2549 2382 3453 3589 3770 3369 3641 4179 4500
91 320 193 0 18 35 28 21 17 10 1 0 16 55 32 22 2 117 286 211 435 1160 1896 2826 2354 2437 3151 3215 4225 4449 4621 4545
357 414 243 138 329 416 370 62 12 35 6 0 0 0 10 3 0 0 106 175 624 1402 1910 3405 2974 3589 3800 3319 3849 3811 3845 4229
495 298 382 287 454 502 363 149 7 26 33 2 5 29 11 15 40 420 494 156 1158 1656 2153 2699 3267 2756 3159 2927 3190 3384 3607 3637
183 348 266 803 431 570 329 357 1104 837 552 223 21 64 225 182 132 531 615 1345 1880 2111 2970 3269 3167 2584 3278 3055 2813 2740 2939 3027
232 217 254 674 648 611 1205 1033 1090 1057 880 927 90 92 693 725 822 935 1218 1637 1759 2364 2710 2618 2911 3088 3299 3451 3609 3832 3647 3344
242 529 1269 917 791 908 905 1046 1033 1055 993 843 610 932 1103 1363 1703 1789 1750 1830 1731 1727 2590 2431 3105 3286 3675 4382 4112 3879 3706 3494
1086 925 794 910 831 926 1068 1047 1003 1098 1134 1137 1166 1266 1415 1558 1409 1256 1223 1696 1531 1751 2361 2769 3159 2903 3590 3411 3365 3356 2908 2548
1159 868 831 677 699 769 1002 1049 1048 1358 1564 1308 1482 1481 1516 1617 1526 1336 1362 1832 1960 1903 2183 2420 2677 2909 2583 2885 3062 2758 2934 2574
600 798 703 184 118 335 381 293 506 803 694 1184 1337 1357 1648 1561 1436 1393 1396 1541 2079 1920 2268 2558 2644 2649 2616 2567 2692 2441 2324 2078
323 314 0 0 0 0 0 0 0 1 26 77 73 140 282 443 668 728 1522 1514 1664 1885 2234 2516 2576 2651 2352 2497 2518 2442 1893 1851

GFSFLT2_con_sbcape_012.txt.gz
CAPE
0 0 0 0 0 0 0 1 21 24 29 19 125 144 26 1 48 197 709 716 548 1000 989 1600 1598 1952 2390 3482 3855 4118 4085 4152
0 0 0 0 0 0 0 3 23 18 86 113 132 353 78 94 60 64 43 816 812 680 1206 1500 1735 1903 2471 3005 3860 4202 4173 4109
0 0 0 0 0 0 0 0 13 38 29 148 417 729 401 163 72 41 32 264 736 790 838 1441 1833 1904 2306 2622 3652 4104 4117 4060
0 0 0 0 0 0 0 0 0 0 7 29 333 167 266 92 95 53 49 173 444 963 801 1108 1478 1700 2162 2602 3178 3748 3899 3952
0 0 0 0 0 0 0 0 0 21 0 2 90 5 361 136 99 200 205 484 549 719 920 991 1140 1517 1961 2337 2712 3470 3637 3665
0 0 0 0 0 0 0 0 0 0 5 33 300 259 141 378 96 188 523 872 1003 914 1269 1094 1232 1513 1770 2105 2324 2859 3254 3363
0 0 0 0 0 0 0 0 0 0 0 27 199 379 111 282 272 155 604 1038 1178 1478 1963 1615 1734 1696 1632 1766 1843 2013 2768 3137
0 0 0 0 10 0 0 0 0 0 0 0 8 111 242 209 88 276 259 366 1322 1700 3064 3160 2180 1945 1717 1679 1706 1895 2238 2663
0 0 1 42 0 3 3 0 0 0 0 0 14 96 415 649 472 408 339 297 1413 1927 2156 2871 2881 2422 1949 1805 1977 1916 2565 2726
0 68 90 0 1 0 0 0 0 0 0 0 0 4 16 15 212 242 308 219 336 852 2102 2631 2877 2626 2659 2363 2573 2495 3667 3264
106 32 5 23 39 154 63 5 12 0 22 6 3 0 5 0 3 21 40 780 464 86 1889 2696 2942 2917 3407 3012 2748 3794 3365 4630
124 73 113 223 191 455 241 211 496 584 263 103 125 60 0 16 14 4 9 122 549 331 2303 3358 3354 3200 3366 3692 3440 3233 4295 4442
95 40 0 388 388 134 147 287 1039 907 856 714 551 806 966 527 1617 649 132 382 1574 3051 2911 3519 3615 3516 3660 3819 3989 4020 4533 4546
369 336 202 445 205 160 1077 865 774 683 652 743 1105 922 905 1172 1328 1640 843 918 3037 3569 4082 4067 3948 4029 4174 4245 4439 4556 4489 4465
40 34 715 1114 1253 1018 925 883 934 828 723 702 666 826 787 1434 1023 1234 1143 2930 2691 3753 4123 4124 4552 4039 4149 4397 4092 4013 4029 4257
146 489 1068 821 624 819 876 1126 1212 1906 2036 1322 808 922 1324 1702 2099 2674 2767 3062 3123 3084 3414 3680 3859 4085 4327 4345 4222 4134 4104 3715
242 1460 1142 1038 1101 1077 1159 1617 1771 1513 1432 1756 1800 1911 2005 2647 2846 2755 2736 2821 3006 3139 3594 3959 4403 4034 4060 4243 4026 3253 2891 2647
1066 263 1275 610 697 689 648 754 824 760 625 524 754 666 894 1900 2191 2464 2607 2497 2641 3122 3432 3445 3496 3587 3788 3882 3263 3053 2608 2247
10 0 0 2 6 101 116 8 85 62 127 63 252 36 138 148 687 1454 1650 2167 2831 3196 3323 3221 3208 3042 3310 3654 3418 2843 2372 2310

GFSFLT2_con_sbcape_015.txt.gz
CAPE
0 0 0 0 0 0 0 0 0 0 0 0 8 41 61 24 94 69 4 1 30 103 319 638 736 1495 1581 2576 2416 2559 2584 2642
0 0 0 0 0 0 0 0 0 0 0 0 7 40 32 47 19 13 3 3 49 73 340 665 803 1322 1543 2497 2604 2708 2277 2902
0 0 0 0 0 0 0 0 0 0 0 0 0 84 44 19 20 42 23 11 87 127 388 794 927 1278 1603 2166 2676 2817 2841 2599
0 0 0 0 0 0 0 0 0 0 0 0 0 137 102 49 15 14 0 55 138 264 347 945 1053 1088 1563 2576 2691 2917 3066 2927
0 0 0 0 0 0 0 0 0 0 0 0 0 0 0 27 17 9 12 108 333 213 610 1062 1138 1080 1557 2181 2971 3085 3260 3199
0 0 0 0 0 0 0 0 0 0 0 0 0 13 0 25 11 0 168 10 166 307 647 933 1264 1230 1364 1872 2759 3169 3398 3283
0 0 0 0 0 0 0 0 0 0 0 0 0 82 62 13 15 4 9 65 300 373 426 847 1200 1290 1398 1696 1943 2906 3147 3209
0 0 0 0 0 0 0 0 0 0 0 0 0 33 272 166 69 1 0 530 705 538 471 573 795 1027 1341 1581 1898 2270 2875 2983
0 0 0 0 0 0 0 0 0 0 0 0 0 0 0 124 162 14 10 416 557 675 751 675 784 979 1270 1577 1693 1993 2404 2756
0 0 4 0 0 0 0 0 0 0 0 0 0 0 0 2 0 4 1 89 559 805 1767 1126 1104 997 1264 1380 1674 1786 1857 2450
0 0 0 0 0 0 0 0 0 60 2 0 0 0 0 0 0 0 0 0 0 638 1051 2033 1519 1233 1121 1152 1470 1456 1572 1894
0 0 0 0 0 339 212 52 769 550 486 373 135 1 0 257 173 0 0 0 0 0 652 1554 1981 1663 1308 1245 1420 1296 1382 1990
4 0 0 0 103 58 73 372 766 568 490 494 446 465 401 456 455 962 663 0 0 211 1332 1595 2027 2093 1778 1605 1379 1995 1438 3575
83 42 39 431 368 183 510 894 488 365 330 391 456 333 494 391 403 732 700 1727 168 1488 1616 2295 2243 2631 2618 2324 2466 2820 3752 4084
15 174 757 112 7 1 57 627 902 1584 2073 1271 1038 1226 668 1256 750 757 2631 3258 3217 3269 3436 3553 3052 3105 3477 3778 3739 3701 3790 3747
179 33 109 180 0 283 1354 848 1165 1377 1393 1321 1222 1492 1942 2108 2164 2470 2647 2845 2951 3090 3138 3274 3411 3470 3522 3315 3374 3443 3222 2783
153 6 14 732 820 850 917 673 435 473 599 607 534 437 455 537 1414 2013 2297 2298 2726 3071 3283 3262 3358 3332 3272 3358 3125 2849 2291 1829
161 6 10 0 16 241 114 170 73 9 0 0 0 0 0 0 12 210 298 2077 2887 3055 3150 3157 3195 3014 2686 2497 2353 1976 1580 1432
14 1 0 0 0 0 0 1 0 0 0 0 0 0 0 0 0 0 1 50 2087 2437 2509 2588 2613 2529 2403 2085 1964 1860 1562 1302

GFSFLT2_con_sbcape_018.txt.gz
CAPE
0 0 0 0 0 0 0 0 0 0 0 0 0 0 0 3 0 0 0 0 0 7 80 170 243 778 1091 1305 1150 1461 1446 1409
0 0 0 0 0 0 0 0 0 0 0 0 0 0 0 13 5 2 1 1 1 0 126 260 217 764 1140 1482 1404 1603 1753 1498
0 0 0 0 0 0 0 0 0 0 0 0 0 0 0 0 25 33 32 6 18 21 76 231 356 780 1317 1521 1464 1701 1930 1864
0 0 0 0 0 0 0 0 0 0 0 0 0 0 0 5 33 71 72 27 6 30 44 163 516 813 1252 1791 1675 1740 1996 2051
0 0 0 0 0 0 0 0 0 0 0 0 0 0 0 10 5 33 48 0 0 1 22 198 548 714 1269 1678 1999 2006 2101 2087
0 0 0 0 0 0 0 0 0 0 0 0 0 0 0 0 4 0 0 0 0 36 54 290 639 738 1242 1453 2157 2227 2357 2227
0 0 0 0 0 0 0 0 0 0 0 0 0 0 0 0 0 9 0 0 29 7 118 405 773 836 1146 1556 1956 2297 2429 2588
0 0 0 0 0 0 0 0 0 0 0 0 0 0 0 0 0 0 0 0 0 63 238 278 782 915 1039 1411 2199 2370 2608 2659
0 0 0 0 0 0 0 0 0 0 0 0 0 0 0 0 0 0 0 0 2 98 214 425 800 985 1030 1468 2016 2593 2676 2869
0 0 0 0 0 0 0 0 0 0 0 0 0 0 0 0 0 0 0 0 51 239 291 581 827 1037 1138 1349 1767 2493 2670 2821
0 0 0 0 0 0 0 0 0 0 0 0 0 0 0 0 0 0 0 0 0 376 331 459 676 962 1124 1295 1684 1895 2416 2638
0 0 0 0 0 1 0 0 141 0 0 0 0 0 0 0 2 0 0 0 0 202 1002 581 584 659 923 1176 1496 1765 1986 2381
0 0 0 0 0 5 8 0 188 0 0 0 0 0 0 105 4 217 0 0 0 0 357 1441 859 678 816 978 1251 1570 1870 1925
36 0 15 1 21 0 0 421 26 0 1 0 0 0 0 22 29 518 340 291 0 0 0 157 1361 983 828 886 1025 1363 1493 1444
42 1 42 5 35 227 748 938 772 676 550 892 1330 1589 1644 1813 1659 654 1547 1877 2023 0 0 37 946 1407 1140 1038 1005 1187 1118 1672
2 27 8 0 152 611 300 118 5 25 42 147 399 570 586 472 550 938 925 784 1846 2490 2461 2418 1894 1740 1466 1493 1909 1995 2236 3186
110 1 1 0 4 46 56 1 0 0 0 0 0 0 1 0 0 0 0 0 0 652 2101 2747 3004 3000 2973 2524 3235 3085 2830 2614
65 3 1 5 0 4 0 0 0 0 0 0 0 0 0 0 0 0 0 0 0 0 0 0 0 2659 2887 2712 2501 2248 1943 1347
7 14 2 0 0 0 0 0 0 0 0 0 0 0 0 0 0 0 0 0 0 0 0 0 0 22 1909 1723 1877 1818 1276 468

GFSFLT2_con_sbcape_021.txt.gz
CAPE
0 0 0 0 0 0 0 0 0 0 0 0 0 0 0 0 0 0 0 0 3 7 4 56 77 217 487 417 553 1177 1174 1053
0 0 0 0 0 0 0 0 0 0 0 0 0 0 0 0 0 0 0 0 0 0 15 36 86 90 464 537 467 738 1234 1113
0 0 0 0 0 0 0 0 0 0 0 0 0 0 0 0 0 0 0 0 0 5 11 26 41 50 359 650 589 570 972 1105
0 0 0 0 0 0 0 0 0 0 0 0 0 0 0 0 0 0 0 0 0 21 13 23 64 80 425 666 779 719 949 1043
0 0 0 0 0 0 0 0 0 0 0 0 0 0 0 0 0 0 0 0 0 0 0 1 46 140 529 736 964 930 1026 1219
0 0 0 0 0 0 0 0 0 0 0 0 0 0 0 0 0 0 0 0 0 0 0 2 20 228 514 928 1071 1114 1254 1398
0 0 0 0 0 0 0 0 0 0 0 0 0 0 0 0 0 0 0 0 0 0 0 0 3 252 490 865 1220 1258 1367 1567
0 0 0 0 0 0 0 0 0 0 0 0 0 0 0 0 0 0 0 0 0 0 0 0 19 269 446 912 1242 1514 1560 1699
0 0 0 0 0 0 0 0 0 0 0 0 0 0 0 0 0 0 0 0 0 0 0 0 17 310 496 909 1147 1783 1820 1847
0 0 0 0 0 0 0 0 0 0 0 0 0 0 0 0 0 0 0 0 0 0 0 0 117 416 614 896 1247 1694 1951 2007
0 0 0 0 0 0 0 0 0 0 0 0 0 0 0 0 0 0 0 0 0 0 0 12 162 535 817 938 1176 1794 2009 2134
0 0 0 0 0 0 0 0 0 0 0 0 0 0 0 0 0 0 0 0 0 0 0 40 294 618 883 960 1276 1810 2151 2263
0 0 0 0 0 0 0 0 0 0 0 0 0 0 0 0 0 0 0 0 0 0 128 131 381 816 1014 1036 1174 1517 2079 2358
0 0 0 9 24 78 8 0 0 0 0 0 0 162 184 434 115 785 1631 1916 1409 0 0 38 198 637 955 1049 1170 1351 1597 1941
8 0 74 19 1 49 74 12 2 139 334 804 981 598 394 270 266 2 24 822 1764 1979 1306 0 4 521 575 933 1103 1241 1343 1561
114 88 122 106 8 37 22 17 9 0 0 14 0 0 0 0 0 0 0 0 68 552 753 45 224 804 645 636 701 1000 1297 1432
125 61 230 112 0 0 0 0 0 0 0 0 0 0 0 0 0 0 0 0 0 325 535 48 0 0 0 88 710 759 1059 1244
145 2 14 1 0 0 0 0 0 0 0 0 0 0 0 0 0 1 0 0 0 0 0 0 0 0 0 0 1350 1238 1157 1769
71 0 0 0 0 0 0 0 0 0 0 0 0 0 0 0 0 0 135 96 1 0 0 0 0 0 0 0 873 2307 2348 889

GFSFLT2_con_sbcape_024.txt.gz
CAPE
0 0 0 0 0 0 0 0 0 0 0 0 0 0 0 0 0 0 0 0 50 118 71 25 80 114 250 410 422 449 434 361
0 0 0 0 0 0 0 0 0 0 0 0 0 0 0 0 0 0 0 0 0 0 9 14 33 122 251 388 380 486 563 550
0 0 0 0 0 0 0 0 0 0 0 0 0 0 0 0 0 0 0 0 0 0 2 0 4 35 200 355 392 436 745 753
0 0 0 0 0 0 0 0 0 0 0 0 0 0 0 0 0 0 0 0 0 0 0 3 0 10 62 332 373 402 851 969
0 0 0 0 0 0 0 0 0 0 0 0 0 0 0 0 0 0 0 0 0 0 0 0 0 0 27 211 456 432 504 1019
0 0 0 0 0 0 0 0 0 0 0 0 0 0 0 0 0 0 0 0 0 0 0 0 0 4 17 159 384 560 541 794
0 0 0 0 0 0 0 0 0 0 0 0 0 0 0 0 0 0 0 0 0 0 0 0 0 4 47 214 395 658 722 761
0 0 0 0 0 0 0 0 0 0 0 0 0 0 0 0 0 0 0 0 0 0 0 0 0 76 165 348 611 778 922 940
0 0 0 0 0 0 0 0 0 0 0 0 0 0 0 0 0 0 0 0 0 0 0 0 1 127 253 441 735 933 1089 1177
0 0 0 0 0 0 0 0 0 0 0 0 0 0 0 0 0 0 0 0 0 0 0 0 0 0 162 397 843 1140 1217 1270
0 0 0 0 0 0 0 0 0 0 0 0 0 0 0 0 0 0 0 0 0 0 0 0 0 0 179 448 856 1194 1436 1420
0 0 0 0 0 0 0 0 0 0 0 0 0 0 0 0 0 0 0 0 0 0 0 0 0 3 293 531 862 1087 1584 1702
0 0 0 0 2 0 0 0 0 1 0 0 0 0 0 0 0 13 28 0 0 0 0 0 0 38 344 478 783 1118 1409 1793
0 0 0 28 42 86 0 0 0 1 0 0 0 71 218 333 520 970 1384 1574 830 0 0 0 0 73 400 595 814 1030 1435 1775
0 0 0 83 70 0 1 1 0 0 0 174 195 31 5 0 0 1 68 463 1120 493 14 1 45 29 41 198 477 801 1202 1773
5 4 0 218 37 0 0 0 2 0 0 0 0 0 0 0 0 0 0 0 53 28 0 0 0 0 0 153 1072 529 950 1290
5 0 148 152 0 0 0 0 0 0 0 0 0 0 0 0 0 1 0 0 0 0 0 0 0 0 0 0 739 1606 408 981
7 0 113 15 0 0 0 0 0 0 0 0 0 0 0 0 0 1 0 0 0 0 0 0 0 0 0 0 201 1941 1780 733
0 9 75 1 0 0 0 0 0 0 0 0 0 0 0 0 0 1 0 0 1 0 3 0 0 15 3 0 0 1016 2018 1333

GFSFLT2_con_sbcape_027.txt.gz
CAPE
0 0 0 0 0 0 0 0 0 0 0 0 0 0 0 0 0 235 603 721 754 1100 1336 1313 1393 1234 1334 1452 1656 1707 1666 1762
0 0 0 0 0 0 0 0 0 0 0 0 0 0 0 0 0 0 33 411 667 989 1110 1162 1051 1311 1254 1439 1659 1761 1754 1716
0 0 0 0 0 0 0 0 0 0 0 0 0 0 0 0 0 0 0 55 190 736 1142 1200 842 1068 1191 1422 1687 1821 1827 1812
0 0 0 0 0 0 0 0 0 0 0 0 0 0 0 0 0 0 22 98 101 170 431 660 1135 986 1194 1325 1550 1746 1832 1931
0 0 0 0 0 0 0 0 0 0 0 0 0 0 0 0 0 0 0 27 132 92 376 672 948 1087 1018 1125 1161 1282 1793 1866
0 0 0 0 0 0 0 0 0 0 0 0 0 0 0 0 0 0 0 60 185 132 653 652 806 1030 1103 1158 1108 1268 1489 1806
0 0 0 0 0 0 0 0 0 0 0 0 0 0 0 0 0 0 0 0 1 134 726 991 1021 1132 1063 1137 1405 1441 1713 1769
0 0 0 0 0 0 0 0 0 0 0 0 0 0 0 0 0 0 0 0 0 353 424 633 1040 1128 1108 1207 1331 1613 1786 1720
0 0 0 0 0 0 0 0 0 0 0 0 0 0 0 0 0 0 0 0 0 196 461 658 652 1105 1047 1203 1204 1619 1861 1931
0 0 0 0 0 0 0 0 0 0 0 0 0 0 0 0 0 0 0 0 0 0 15 861 381 319 984 1226 1558 1723 1931 2138
0 0 0 0 0 0 0 0 0 0 0 0 0 0 0 0 0 0 0 0 0 0 0 606 738 883 1181 1389 1701 1909 2010 2208
0 0 0 0 0 0 0 0 0 0 0 0 0 0 0 0 0 0 0 0 0 0 0 1 496 389 991 1216 1632 2025 2154 2263
0 0 0 0 0 61 0 0 0 0 0 32 10 0 0 0 0 0 1 0 0 0 0 29 46 315 1289 1452 1793 2012 1858 2055
1 0 0 0 0 0 12 22 8 0 0 2 73 179 0 111 1190 2092 2130 1398 0 0 38 555 680 750 1564 2182 1998 2107 2249 2682
1 0 0 0 0 36 155 104 46 16 0 2 55 338 73 1098 1584 1881 2142 1809 1205 967 1232 1185 1337 1528 1788 1786 1796 2120 2588 3149
15 0 0 0 0 0 83 106 83 18 0 1 371 440 310 82 128 654 1218 1309 761 609 785 868 1394 1797 2035 2386 2404 2247 2781 3019
42 21 0 0 0 0 1 97 52 26 24 21 22 2 4 43 55 0 22 60 246 376 425 360 464 388 229 355 2150 3073 2368 2333
1 0 23 3 0 2 43 104 71 26 62 38 42 1 1 6 134 91 80 264 242 223 255 226 295 329 267 266 197 1056 1793 2111
5 0 1 24 14 123 145 102 46 39 11 29 3 18 4 8 1 0 58 65 181 552 740 849 753 688 675 629 407 488 724 1230

GFSFLT2_con_sbcape_030.txt.gz
CAPE
0 0 0 0 0 0 0 0 0 0 0 0 0 0 0 0 0 0 349 1048 1242 1312 1481 1693 1870 2404 2520 2899 3420 2990 2477 3596
0 0 0 0 0 0 0 0 0 0 0 0 0 0 0 0 0 0 207 955 1171 1318 1392 1595 1765 1888 2321 2876 3152 3256 2791 3018
0 0 0 0 0 0 0 0 0 0 0 0 0 0 0 0 0 0 94 718 903 1044 1208 1416 1649 1873 1995 2274 2835 2903 3003 3244
0 0 0 0 0 0 0 0 0 0 0 0 0 0 0 0 0 0 22 76 187 545 875 1152 1478 1677 1941 1960 2028 2464 2874 3360
0 0 0 0 0 0 0 0 0 0 0 0 0 0 0 0 0 0 0 14 108 142 342 884 1244 1556 1519 1839 1785 1885 2743 2496
0 0 0 0 0 0 0 0 0 0 0 0 0 0 0 0 0 0 0 0 0 37 190 517 1166 2163 2340 1487 1622 1655 1942 2199
0 0 0 0 0 0 0 0 0 0 0 0 0 0 0 0 0 0 0 0 0 362 530 1037 1337 2004 2512 1820 2011 1880 2602 2324
0 0 0 0 0 0 0 0 0 0 0 0 0 0 0 0 0 0 0 0 0 0 199 714 1254 1624 1883 2635 2182 2057 2834 2840
0 0 0 0 0 0 0 0 0 0 0 0 0 0 0 0 0 0 0 0 0 0 17 594 1028 1367 1491 2454 2020 2485 2880 3204
0 0 0 0 0 0 0 0 0 0 0 0 0 0 0 0 0 0 0 0 0 0 0 82 437 123 1124 1361 2672 2860 3123 3304
0 0 0 0 0 0 0 0 0 0 0 0 0 0 0 0 0 0 0 0 0 0 0 0 0 155 359 1326 1876 2600 3156 3389
0 0 0 0 0 0 0 0 0 0 0 0 2 0 0 0 0 0 0 0 0 0 0 0 127 224 622 1151 1554 2588 3008 3277
0 0 0 0 0 16 0 60 8 0 0 2 229 117 145 78 64 2 0 0 0 0 0 37 419 644 1056 1290 1677 2423 2349 2415
0 0 0 0 0 0 6 5 1 2 0 0 11 80 423 606 662 218 69 669 1172 332 0 16 640 630 1193 2941 2489 2985 3083 3084
0 0 0 0 0 0 0 0 0 1 3 0 12 144 467 921 909 20 435 1275 1690 13 243 1386 1904 1567 1639 2737 2643 2702 2999 3669
23 0 2 5 0 0 0 0 0 0 0 0 1 269 890 1194 781 1060 1728 2440 2084 1387 1305 1988 2517 2625 2869 2875 2719 2767 2875 3131
64 53 26 2 0 0 0 0 0 0 0 3 11 514 1086 894 936 1382 1525 1290 1451 1791 1899 1864 1976 2011 2185 2711 3430 2926 3120 3231
34 32 55 42 32 0 0 0 0 0 0 0 94 185 399 903 1075 989 1125 1002 976 963 1041 1162 1093 1147 1228 1225 1326 1848 2398 2539
30 36 45 50 36 1 46 4 0 9 11 107 41 24 53 230 74 138 791 1040 1307 1367 1424 1437 1358 1203 614 814 1496 1653 1541 1516

GFSFLT2_con_sbcape_033.txt.gz
CAPE
0 0 0 0 0 0 0 0 0 0 0 0 0 0 0 1 0 25 199 623 931 1279 1489 1998 1884 2412 2567 3137 3788 4039 3666 4080
0 0 0 0 0 0 0 0 0 0 0 0 0 0 0 0 0 0 47 410 867 1173 1416 2002 1792 2254 2678 3004 3598 3841 3477 3820
0 0 0 0 0 0 0 0 0 0 0 0 0 0 0 0 0 0 0 173 722 1153 1344 1673 1773 1806 2386 2836 3499 3829 3763 3768
0 0 0 0 0 0 0 0 0 0 0 0 0 0 0 0 0 0 0 80 657 1153 1137 1320 1684 1809 2082 2503 2528 3662 3785 3880
4 0 0 0 0 0 0 0 0 0 0 0 0 0 0 0 0 0 0 130 686 893 1037 1181 1437 2155 1996 2512 2119 2266 3248 3444
0 0 0 0 0 0 0 0 0 0 0 0 0 0 0 0 0 0 0 20 211 330 498 1134 1601 2564 2854 2368 2258 2288 2501 2859
0 4 0 0 0 0 0 0 0 0 0 0 0 0 0 0 0 0 0 0 1 89 432 933 2052 2882 3096 2400 2841 2548 3151 3153
0 0 0 0 0 0 0 0 0 0 0 0 0 0 0 0 0 0 0 0 0 0 89 552 1404 2615 2828 3201 2798 2824 3479 3342
6 0 0 0 0 0 0 0 0 0 0 0 0 0 0 0 0 0 0 0 0 0 0 259 633 1582 2022 3294 3226 2934 3378 3782
7 4 2 0 0 0 0 0 0 0 0 0 0 0 0 0 0 0 0 0 0 0 0 34 19 291 1415 1558 3813 3697 3634 3690
0 1 0 0 0 0 0 0 0 0 0 0 0 0 0 0 0 0 0 0 0 0 0 134 0 42 473 1643 2824 3744 3908 3861
13 3 7 3 1 0 0 0 0 0 0 0 0 0 0 129 50 32 0 0 0 0 0 0 62 0 0 256 1698 3625 3658 4076
4 10 3 2 20 11 2 186 46 5 0 4 22 164 360 211 244 527 648 514 249 157 74 165 113 67 1358 1224 1405 2704 3329 3999
5 9 6 0 0 14 37 20 2 13 21 47 67 60 115 119 393 626 983 787 400 397 1021 1174 431 783 2740 2973 3085 3777 3761 3970
2 0 0 0 0 0 0 0 0 0 0 0 0 3 31 162 629 1090 1141 805 37 310 1619 533 772 1067 2719 3751 4441 4389 4491 4638
13 2 0 0 0 0 0 0 0 0 0 0 0 0 0 280 997 1197 1167 1444 1962 2000 1703 1040 2063 2545 2454 3448 3665 4170 4740 4844
25 7 13 2 0 0 0 0 0 0 0 0 0 0 0 508 1564 1177 1660 2257 2041 2451 2558 2752 3134 3421 3449 3497 3231 3255 3426 3393
69 57 34 31 24 6 0 0 0 0 0 0 0 0 76 275 1326 1948 1681 1703 1839 1902 2007 1914 1867 1891 1991 2011 3223 3800 3592 3550
55 57 57 30 51 37 25 0 0 0 0 0 0 0 199 173 1181 1141 1846 1508 1670 1947 1925 1908 1809 1161 1172 1770 1988 2147 2434 2467

GFSFLT2_con_sbcape_036.txt.gz
CAPE
0 0 0 0 0 0 0 0 0 0 0 0 0 0 0 11 95 174 341 541 1258 1650 1638 1385 1177 1438 1725 2405 2944 3179 2854 3391
0 0 0 0 0 0 0 0 0 0 0 0 0 0 0 0 8 82 218 488 1099 1527 1832 1648 1366 1431 1651 2315 2792 3214 3325 3138
0 0 0 0 0 0 0 0 0 0 0 26 0 0 0 0 0 62 230 479 903 1572 1742 2009 1682 1658 1679 1931 2804 3220 3281 3249
1 0 0 0 0 0 0 0 0 0 13 0 0 0 0 0 0 8 206 678 830 1351 1683 2024 2091 1892 1960 2046 2469 3060 3534 3438
0 2 0 0 0 0 0 0 0 0 0 0 0 0 0 0 19 82 457 375 762 1238 1549 1964 2135 2174 2186 2189 2190 2971 3458 3411
0 0 0 0 0 0 0 0 0 0 0 0 0 0 0 33 75 126 568 486 831 1203 1556 1839 2127 2398 2398 2370 2383 2495 3178 3450
0 2 20 0 0 0 0 0 0 0 0 0 0 0 0 0 152 312 641 708 1207 1324 1836 1941 2282 2506 2597 2530 2566 2528 2680 3203
0 0 0 0 0 0 0 0 0 0 7 0 0 23 4 41 57 200 158 103 188 537 695 1520 2498 2951 2569 2672 2821 2764 2758 2929
0 0 0 4 0 1 0 0 0 0 29 15 14 11 9 0 0 0 0 0 0 38 327 1008 1472 3277 3287 3024 3098 3270 2998 3261
0 0 3 0 2 0 3 0 0 0 64 148 241 63 0 0 0 0 0 0 128 0 45 1038 393 475 2111 3412 3495 3310 3880 3601
0 1 1 6 0 0 0 1 14 31 36 5 0 0 0 0 0 0 0 29 59 0 2 1426 842 974 1605 2066 3730 3726 3464 3920
0 0 1 10 0 0 1 0 30 0 0 0 0 0 458 520 228 351 560 988 1357 913 936 220 2046 406 2494 2214 2862 3636 3597 3435
0 0 0 0 0 0 0 188 115 31 74 81 174 656 452 179 172 390 871 1161 1385 1338 1268 2281 2246 1988 2875 2217 2348 3089 3601 3745
1 0 0 0 0 2 69 0 0 0 0 0 0 0 29 66 356 651 1213 1463 1188 1486 1656 1681 2692 2540 2944 3880 3984 4151 4223 4064
0 0 0 2 0 0 0 0 0 0 0 0 0 0 0 1 559 1069 1743 1962 1574 1265 1618 1906 1987 3187 3042 4783 5096 4868 5087 4912
2 0 0 0 0 0 0 0 0 0 0 0 0 0 0 0 60 874 1992 2249 3052 3147 3420 3637 2642 3000 4366 4350 4436 5079 5233 5322
15 0 13 0 0 0 0 0 0 0 0 0 0 0 0 0 223 322 913 2659 2816 3385 4009 4061 4454 4187 4045 4478 4801 4646 4830 4986
29 7 25 14 0 0 0 0 0 0 0 0 0 0 0 0 306 386 1411 2396 2882 2941 2690 2405 2288 2360 2679 2771 3849 4822 4644 4244
3 0 0 0 0 0 0 0 0 0 0 0 0 0 0 0 308 320 1003 2196 2369 2761 2276 2464 2430 1564 1547 2568 2673 3611 3975 4549

GFSFLT2_con_sbcape_039.txt.gz
CAPE
0 0 0 0 0 0 0 0 0 0 0 0 0 0 0 0 27 497 563 654 633 452 441 315 402 1003 1112 1591 1384 1550 1813 1752
0 0 0 0 0 0 0 0 0 0 0 0 0 0 0 0 0 241 479 654 906 612 540 400 386 872 1201 1753 1711 1710 1722 1912
0 0 0 0 0 0 0 0 0 0 0 0 0 0 0 0 0 15 466 656 1094 919 725 572 462 789 1059 1466 1942 1930 1911 1747
0 0 0 0 0 0 0 0 0 0 0 0 0 0 0 0 0 0 174 252 1197 1152 998 817 606 745 984 1191 1905 2023 2129 1903
0 0 0 0 0 0 0 0 0 0 0 0 0 0 0 0 0 0 24 324 1125 1346 1251 1054 814 717 913 1120 1583 2009 2243 2302
0 0 0 0 0 0 0 0 0 0 0 0 0 0 0 0 2 0 273 352 1081 1235 1417 1336 1093 925 920 1008 1362 2007 2201 2408
0 0 0 0 0 0 0 0 0 0 0 0 1 24 14 0 3 64 227 467 745 1164 1235 1510 1425 1197 1178 1121 1267 1572 2292 2541
0 0 0 0 0 0 0 0 0 0 0 0 0 14 2 0 0 0 2 172 212 690 1191 1452 1656 1564 1475 1457 1439 1479 2083 2418
0 0 0 0 0 1 0 0 0 0 0 0 1 6 0 0 0 0 0 0 0 0 142 1259 1764 1753 1781 1830 1667 1723 1721 2223
0 0 0 0 0 1 0 0 0 0 16 0 51 149 40 0 0 0 4 0 0 0 0 1 707 2040 1887 1897 2067 1931 1926 1960
0 0 0 0 0 0 18 25 2 225 205 17 252 314 158 92 219 333 411 537 607 463 287 284 42 80 2302 2142 2302 2495 2216 2236
0 0 0 0 0 0 0 0 0 9 357 34 355 267 200 94 139 351 538 652 768 635 436 432 713 586 1865 2660 2498 2654 2775 2947
0 0 0 0 0 0 1 0 0 0 0 0 0 0 0 41 137 469 856 979 960 776 745 879 568 497 1025 1151 2721 2660 2461 2666
0 2 2 0 0 0 0 0 0 0 0 0 0 0 0 0 36 414 234 1025 1412 1210 736 608 405 1106 852 677 1973 2367 2703 2894
0 0 0 0 0 0 0 0 0 0 0 0 0 0 0 0 0 71 49 73 1546 2280 2505 2624 1060 1306 1282 2943 3063 3693 2914 3026
0 0 0 0 0 0 0 0 0 0 0 0 0 0 0 0 0 55 28 158 1217 1972 2683 3432 3227 3098 3090 3460 3146 2450 3343 4218
0 0 0 0 0 0 0 0 0 0 0 0 0 0 0 0 0 82 81 155 663 1228 2025 2575 2577 2431 2325 2289 2737 3756 2723 4587
1 0 0 0 0 0 0 0 0 0 0 0 0 0 0 0 0 76 52 41 424 875 1547 1924 2185 1682 1275 1287 1872 2793 3808 4379
0 0 0 0 0 0 0 0 0 0 0 0 0 0 0 0 0 0 81 175 372 651 1034 1495 1408 1277 1179 1438 2077 1860 2002 3293

GFSFLT2_con_sbcape_042.txt.gz
CAPE
0 0 0 0 0 0 0 0 0 0 0 0 0 0 0 0 169 64 299 410 296 374 253 218 423 622 575 416 391 876 933 858
0 0 0 0 0 0 0 0 0 0 0 0 0 0 0 0 3 25 555 480 348 337 328 304 379 579 710 604 464 593 1057 853
0 0 0 0 0 0 0 0 0 0 0 0 0 0 0 0 8 252 525 529 424 334 419 354 335 589 834 809 702 779 951 1203
0 0 0 0 0 0 0 0 0 0 0 0 0 0 0 0 0 270 660 625 520 411 492 414 364 638 722 1108 969 996 1113 1293
0 0 0 0 0 0 0 0 0 0 0 0 0 0 0 0 0 0 401 688 607 537 495 485 369 518 940 1081 1312 1240 1291 1320
0 0 0 0 0 0 0 0 0 0 0 0 0 0 0 0 0 0 150 647 815 712 599 559 397 466 804 1048 1588 1589 1601 1598
0 0 0 0 0 0 0 0 0 0 0 0 0 0 0 0 0 0 112 588 997 879 776 700 522 436 720 916 1305 1731 1804 1824
0 0 0 0 0 0 0 0 0 0 0 0 0 0 0 0 0 0 0 597 1127 1024 956 871 696 557 711 830 1144 1569 1827 1943
0 0 0 0 0 0 0 0 0 0 0 0 40 76 30 0 0 0 0 513 1135 1141 1083 1096 942 773 722 834 959 1526 1764 1854
0 0 0 0 0 0 0 0 0 0 0 241 255 188 93 69 91 65 18 0 0 156 673 1150 1227 1066 938 910 984 1108 1521 1992
0 0 0 0 0 0 0 0 0 0 297 308 180 90 66 35 182 133 88 59 52 73 15 45 1315 1488 1385 1299 1299 1269 1337 1448
0 0 0 0 0 0 0 0 0 0 0 0 36 45 0 0 35 87 726 366 112 60 48 67 248 116 1628 1698 1741 1621 1575 1654
0 0 1 0 0 0 0 0 0 0 0 0 0 0 0 0 0 0 34 983 1233 1103 576 99 126 211 1463 1695 1935 2029 1967 1765
0 0 3 0 0 0 0 0 0 0 0 0 0 0 0 0 0 0 0 589 1172 2479 2536 1805 369 313 95 882 1393 1929 1855 2215
7 3 3 0 26 0 0 0 0 0 0 0 0 0 0 0 0 0 0 9 530 1288 2235 2371 2228 2145 2407 2453 2068 2174 2228 2275
0 0 0 0 0 0 0 0 0 0 0 0 0 0 0 0 0 0 0 0 120 830 1102 1691 1909 1826 1725 1636 1854 2655 1513 2877
0 0 0 0 0 0 0 0 0 0 0 0 0 0 0 0 0 0 0 0 46 239 553 883 1643 1189 932 851 1032 1567 2208 2446
1 0 0 0 0 0 0 0 0 0 0 0 0 0 0 0 0 0 0 0 4 58 111 438 1141 934 803 744 1149 1616 1722 2208
6 4 0 0 0 0 0 0 0 0 0 0 0 0 0 0 0 0 0 0 21 108 190 626 931 1016 1080 1218 1418 1256 976 703

GFSFLT2_con_sbcape_045.txt.gz
CAPE
0 0 0 0 0 0 0 0 0 0 0 0 0 0 12 107 146 114 57 75 182 433 249 210 335 264 162 70 168 128 130 167
0 0 0 0 0 0 0 0 0 0 0 0 0 0 0 116 144 125 88 59 84 314 255 145 341 337 274 153 223 281 233 247
0 0 0 0 0 0 0 0 0 0 0 0 0 0 0 0 31 63 176 92 56 164 286 197 345 460 302 255 209 301 433 380
0 0 0 0 0 0 0 0 0 0 0 0 0 0 0 0 0 0 142 174 110 161 254 266 193 422 456 303 236 221 484 519
0 0 0 0 0 0 0 0 0 0 0 0 0 0 0 0 0 0 6 100 179 268 216 316 264 211 463 483 361 244 340 618
0 0 0 0 0 0 0 0 0 0 0 0 0 0 0 0 0 0 0 19 251 358 285 347 307 200 381 586 535 450 474 555
0 0 0 0 0 0 0 0 0 0 0 0 0 0 0 0 0 0 0 75 263 374 303 348 298 221 450 555 802 695 729 792
0 0 0 0 0 0 0 0 0 0 0 0 3 20 21 0 0 0 49 243 382 454 386 378 347 283 404 694 989 1038 981 1012
0 0 0 0 0 0 0 0 0 0 0 0 105 117 79 58 0 0 0 214 435 425 422 415 403 336 457 793 1021 1363 1353 1343
0 0 0 0 0 0 0 0 0 0 0 166 245 151 40 7 87 151 0 111 403 561 554 494 492 415 447 718 909 1419 1592 1653
0 0 0 0 0 0 0 0 0 0 0 26 208 191 75 0 12 170 649 0 9 377 502 568 610 529 532 736 924 1156 1461 1701
2 0 0 0 0 0 0 0 0 0 0 0 7 42 0 0 0 13 772 1106 89 0 242 797 776 687 683 774 850 1004 1371 1653
9 13 2 0 0 0 0 0 0 0 0 0 0 0 0 0 0 0 29 808 1923 1297 183 30 151 987 1016 1010 1020 1082 1068 1104
14 15 12 0 0 0 0 0 0 0 0 0 0 0 0 0 0 0 0 127 800 1814 1706 1142 75 649 903 1270 1315 1432 1390 1207
11 15 0 0 0 0 0 0 0 0 0 0 0 0 0 0 0 0 0 0 140 540 1361 1498 1471 1552 1671 1770 2170 1621 1666 1645
2 0 0 0 0 0 0 0 0 0 0 0 0 0 0 0 0 0 0 0 0 63 405 1072 906 779 693 774 1248 1892 1997 1830
0 0 0 0 0 0 0 0 0 0 0 0 0 0 0 0 0 0 0 0 0 0 6 328 651 453 514 947 1120 1370 1672 1758
3 0 2 0 0 0 0 0 0 0 0 0 0 0 0 0 0 0 0 0 0 0 7 137 429 459 629 1104 1206 1022 1135 1046
20 6 2 0 1 0 0 0 0 0 0 0 0 0 0 0 0 0 0 0 0 0 0 140 380 567 448 1055 899 658 563 824

GFSFLT2_con_sbcape_051.txt.gz
CAPE
0 0 0 0 0 0 0 0 0 0 0 0 0 0 0 1 192 509 657 650 580 511 627 765 809 855 795 888 842 829 527 1108
0 0 0 0 0 0 0 0 0 0 0 0 0 0 0 0 34 315 647 745 699 613 649 837 674 860 832 905 895 873 841 980
0 0 0 0 0 0 0 0 0 0 0 0 0 0 0 0 2 85 489 750 809 864 849 805 661 812 886 869 995 974 883 932
0 0 0 0 0 0 11 0 0 0 0 0 0 0 0 0 0 29 209 620 731 802 886 844 1028 939 809 897 698 934 976 1033
0 0 0 0 0 0 0 0 1 0 0 0 0 0 0 0 0 0 158 318 522 422 812 1002 1040 1216 999 878 692 667 996 736
0 0 0 0 0 0 0 1 0 3 0 0 0 0 0 0 0 0 0 157 405 398 1006 1320 1350 1399 1333 1133 898 808 801 871
0 0 0 0 0 0 0 0 0 0 0 0 0 0 0 0 0 5 1 0 166 517 936 1083 1471 1472 1483 1462 1346 1070 1240 1224
0 0 0 0 0 0 0 0 0 0 0 0 0 6 0 76 97 148 202 233 79 5 670 899 1136 1421 1374 1516 1476 1412 1440 1451
0 1 1 0 0 0 0 0 0 0 0 0 1 203 2 0 0 0 63 136 483 313 3 908 823 1364 1328 1523 1584 1593 1607 1712
1 1 16 13 0 0 0 0 0 0 0 0 67 211 19 0 0 0 1 22 292 693 48 242 540 733 1249 1394 1726 1708 1748 1828
20 51 7 75 0 0 0 0 0 0 0 0 0 336 312 0 0 0 0 3 530 967 215 418 1039 1321 1483 1695 1793 1788 1837 1917
25 41 149 10 2 0 1 0 0 0 0 0 138 613 0 0 0 0 1 146 954 624 253 803 1388 1362 1505 1460 1855 1934 1967 2040
41 43 14 5 4 0 6 0 0 0 0 0 0 0 0 0 0 0 113 257 1305 839 1146 1556 1574 1313 1773 1813 2119 1873 1802 1782
36 38 20 7 0 1 3 0 0 0 0 0 0 0 0 0 0 0 7 331 875 1305 920 1142 1472 1737 2030 2160 2377 2584 2672 2625
41 29 9 31 11 5 19 6 0 0 0 0 0 0 0 0 0 0 0 173 743 1247 1429 1694 1360 1469 1692 1918 2180 2566 2985 3177
11 11 19 5 7 16 1 15 1 0 0 0 0 0 0 0 0 0 0 40 737 1236 1389 1571 1958 2198 2478 2530 2124 2157 2521 2855
12 7 15 14 33 18 7 9 5 0 0 0 0 0 0 0 0 0 0 0 210 647 985 1132 1390 1530 1500 1944 2750 2460 2246 2161
31 15 26 16 20 13 9 10 9 1 0 0 0 0 0 0 0 0 0 0 0 0 190 797 878 639 657 784 990 1729 2285 2575
38 22 26 13 10 5 8 8 11 6 0 0 0 0 0 0 0 0 0 0 0 0 0 0 280 101 1 19 675 912 841 1236

GFSFLT2_con_sbcape_054.txt.gz
CAPE
0 0 0 1 0 0 0 0 0 0 0 0 0 0 0 1 88 482 716 990 1087 1003 873 743 862 1382 1354 1877 1724 1807 1344 2274
0 0 0 0 0 5 0 0 0 0 0 0 0 0 0 0 9 111 483 822 930 1158 1073 977 827 907 1002 1103 1717 1777 1378 1584
0 0 0 0 1 33 15 1 0 0 0 0 0 0 0 0 0 27 293 782 874 1084 1166 1118 974 901 1047 1066 1286 1379 1713 1855
0 5 1 1 50 1 64 23 0 0 7 0 0 0 0 0 0 10 71 447 837 953 1023 1172 1198 1051 1037 1057 1110 1217 1806 2303
0 0 0 0 6 10 46 58 38 19 1 0 0 0 0 0 0 13 59 131 543 792 1012 1113 1283 1286 1111 1092 971 1087 1657 1318
0 0 0 0 3 0 0 58 17 39 48 14 0 0 0 0 0 0 0 93 295 557 749 1239 1504 2101 2000 1289 1086 961 1190 1204
0 0 0 0 0 0 0 1 16 29 55 58 0 0 0 0 0 0 0 0 33 247 713 1587 1819 2328 2183 1470 1650 1424 2007 1303
0 0 0 0 0 0 0 0 0 0 0 49 0 0 0 0 9 56 35 126 72 38 512 945 1337 2046 2346 2486 2094 1913 2480 2211
11 0 0 0 0 0 0 0 0 0 0 24 0 0 219 175 157 146 136 242 343 526 361 221 1049 1546 1992 2805 2228 2427 2809 2718
22 18 3 0 0 4 2 0 0 0 0 42 0 86 537 75 45 110 67 72 346 609 768 1072 249 743 1511 1902 2900 2961 3160 3001
71 53 7 26 204 125 158 92 59 12 0 0 0 311 931 0 0 59 53 103 263 525 917 1251 1373 461 1208 1656 2416 2828 3176 3210
122 50 59 51 1 9 10 146 1 0 0 0 19 183 184 0 0 61 118 344 548 1007 1426 1491 1592 379 772 1518 1976 2939 3039 3133
172 79 41 1 0 3 147 82 0 0 1 1 175 0 0 0 0 0 10 467 1167 1832 1733 1365 1150 419 1883 2113 2437 2639 2292 2351
151 76 75 3 0 32 14 17 6 8 5 0 0 0 0 0 0 0 0 848 1662 1681 1485 970 1069 1292 2620 2924 2327 2708 2867 2823
104 68 15 14 12 17 38 31 30 8 5 0 0 0 0 0 0 0 1 87 1399 1765 1715 1476 1453 1650 2000 3232 2931 3068 3171 3473
31 43 17 24 27 35 36 38 33 5 2 2 0 0 0 0 0 0 0 0 25 1306 1632 2157 2468 2098 2214 2508 2594 2775 2905 3008
14 17 7 21 23 22 29 30 17 7 1 1 1 0 0 0 0 0 0 0 0 0 635 767 1058 1392 1565 2421 2616 2750 2934 3012
29 15 29 20 38 17 17 27 24 14 5 1 2 1 0 0 0 1 6 0 0 0 0 51 83 380 804 1609 1984 2945 2673 2684
30 21 29 25 27 16 8 23 20 14 20 4 4 3 0 0 0 10 5 5 16 10 0 9 14 14 102 568 1497 1919 2345 3043

GFSFLT2_con_sbcape_057.txt.gz
CAPE
0 0 0 0 2 0 0 0 0 0 0 0 0 6 59 1 208 421 844 835 889 682 517 859 1123 1589 1544 2124 2782 2935 2116 2739
0 0 0 0 1 0 0 2 0 3 0 0 0 0 4 24 44 309 474 759 883 1063 856 692 747 953 1520 1967 2600 2514 2409 2807
0 0 0 0 0 8 38 5 0 9 0 1 0 0 0 1 2 42 313 576 789 1155 1171 1016 904 870 1041 1416 2159 2269 2428 2604
0 0 0 0 4 0 96 63 5 9 20 13 5 0 0 0 12 2 16 370 728 809 1093 1208 1194 1093 1149 1152 1160 1850 2270 2768
0 0 0 0 0 26 18 23 70 27 8 18 2 1 0 0 0 0 17 171 512 654 831 1274 1333 1587 1166 1201 1159 1227 2085 2004
0 0 0 5 2 21 85 87 44 42 64 21 19 15 3 0 0 4 97 204 247 579 835 1162 1753 2336 2234 1402 1242 1121 1301 1554
0 0 0 0 0 15 95 89 86 40 47 82 76 30 52 0 0 0 18 75 229 286 1409 2517 2394 2865 2606 1828 2042 1629 1932 1835
19 3 0 0 0 0 0 0 0 0 0 8 2 112 104 17 26 22 0 0 0 187 499 896 1539 2831 2983 2661 2455 2083 2424 2123
73 24 3 0 0 0 0 0 0 0 0 0 0 4 93 139 167 135 144 104 144 190 122 382 933 1810 2494 3013 2566 2773 2865 2842
159 60 42 3 0 0 0 0 0 0 0 0 0 4 39 807 433 327 318 316 388 476 507 541 503 900 1398 2121 3235 3147 3121 3526
216 130 60 18 82 142 13 0 38 31 0 0 0 1 11 90 444 562 602 657 638 599 584 793 974 779 870 1833 3317 3256 3697 3393
234 142 92 42 162 12 39 52 129 256 16 13 24 84 41 228 122 195 338 660 931 1036 1060 1186 1366 1367 1309 946 2392 3500 3627 3525
278 223 120 318 86 0 83 51 1 69 116 158 189 358 151 0 0 0 34 470 747 1614 1727 1897 2086 1774 2103 1525 2155 3165 3509 3738
356 220 149 278 91 7 1 0 0 10 5 12 24 0 0 0 0 0 0 0 50 1763 2356 2247 2208 2309 3111 2770 2327 3459 3695 3892
227 210 385 121 34 53 2 1 11 33 7 12 9 5 0 0 1 0 0 0 0 696 2975 2903 2223 1840 2996 2749 3727 3917 4059 4115
80 87 14 7 9 4 0 2 9 41 22 14 17 14 0 0 0 5 1 2 3 31 579 1786 2017 2537 2980 3024 3833 4185 4219 4253
27 17 5 8 23 28 23 25 63 44 11 5 6 23 2 0 0 27 23 9 13 5 7 8 33 284 753 1994 3693 3207 3992 3807
35 15 20 18 25 29 28 62 38 34 23 7 6 11 4 0 0 73 26 32 15 7 3 3 1 0 0 88 2090 3306 3222 3394
31 21 18 30 33 31 33 60 31 3 4 18 8 10 0 0 73 61 55 20 48 29 13 16 10 5 0 0 75 2755 3351 3409

GFSFLT2_con_sbcape_060.txt.gz
CAPE
0 0 0 0 0 0 0 0 0 0 0 0 0 0 188 190 229 64 3 12 737 793 676 861 774 674 1023 1457 1683 1894 1611 1897
0 0 0 0 0 1 0 0 0 0 0 0 0 0 32 103 69 19 4 1 86 921 777 927 876 1010 945 1602 1835 2086 1907 2009
0 0 0 0 0 0 1 10 0 0 0 0 37 0 2 216 188 6 6 48 138 325 922 840 964 1155 1075 1141 2127 2345 2311 1979
0 0 0 2 0 0 7 1 6 2 0 0 14 12 0 0 71 352 371 422 170 8 1 929 928 1060 1378 1246 1545 2167 2327 2144
0 0 0 0 0 0 0 0 13 29 1 0 1 50 24 1 0 447 129 122 46 80 271 1031 940 1071 1227 1359 1300 1941 2312 2133
0 0 0 0 0 0 0 8 0 0 0 6 37 12 34 20 29 39 379 417 364 454 804 1292 1229 1298 1319 1267 1305 1434 1975 2067
0 0 0 0 0 0 0 0 22 0 0 0 63 95 60 112 116 49 36 280 167 672 924 1490 1742 1770 1707 1612 1395 1413 1591 1783
9 1 0 0 0 0 0 0 0 13 0 0 0 41 12 61 165 466 198 74 231 373 909 1048 2040 2178 2054 1867 1791 1665 1669 1763
31 41 16 4 0 0 0 0 0 0 0 0 0 0 46 87 108 364 875 506 732 756 819 268 31 678 2489 2407 2075 2047 2094 1962
100 64 53 1 0 0 0 0 0 0 0 0 0 0 0 0 131 121 575 772 703 346 537 468 13 211 2569 2693 2765 2748 2262 2513
79 92 13 2 25 98 135 1 0 22 3 0 0 0 0 231 394 187 1 20 615 525 635 1241 1337 1422 1895 2837 2742 2474 3015 2458
177 71 39 1 93 36 26 21 87 0 0 0 8 35 45 80 19 1 9 2 340 639 764 1192 1393 1379 1390 1603 3295 2706 2424 3063
214 173 90 213 129 55 47 6 15 0 0 0 2 47 38 60 0 0 0 5 12 90 619 1359 2415 2006 1698 1725 1802 3350 2836 2560
266 152 74 291 131 101 133 21 12 0 0 0 0 3 2 0 0 0 1 0 3 10 428 2317 3124 2947 2350 2368 2104 2717 3600 3117
26 117 312 127 60 33 7 11 0 0 0 0 0 10 8 5 3 2 6 2 5 6 7 51 422 1832 3400 3328 3177 2810 4018 3528
3 81 10 4 10 10 7 12 8 3 0 0 2 8 6 13 0 0 15 13 1 4 1 4 4 24 721 1234 3369 3692 2828 3991
19 13 3 9 8 10 15 6 1 0 0 6 19 6 9 1 1 0 22 17 25 15 4 2 7 12 4 81 751 3368 3972 4013
40 17 19 7 17 15 6 4 0 33 13 27 23 2 10 0 0 34 16 10 30 2 0 2 8 7 7 5 5 1094 4200 4065
12 15 30 33 17 21 24 34 41 14 11 32 19 11 16 12 21 15 0 0 5 22 0 11 12 5 8 5 2 7 1250 3967

GFSFLT2_con_sbcape_063.txt.gz
CAPE
0 0 0 0 0 0 0 0 0 0 0 0 0 329 433 162 0 2 491 289 333 253 150 100 139 155 307 363 322 711 554 78
0 0 0 0 0 0 0 0 0 0 0 0 0 0 285 217 134 413 419 507 290 150 255 175 156 214 207 463 436 677 698 438
0 0 0 0 0 0 0 0 0 0 0 0 0 0 348 318 351 490 173 237 232 255 56 136 41 151 291 621 510 628 563 872
0 0 0 0 0 0 0 0 0 0 0 0 0 0 2 402 326 433 154 65 205 118 7 22 5 330 241 518 788 764 807 693
0 0 0 0 0 0 0 0 0 0 0 0 0 0 0 3 66 341 276 313 193 92 145 43 0 0 433 414 986 1019 1105 859
0 0 0 0 0 0 0 0 0 0 0 0 0 0 0 3 300 521 396 348 216 82 0 0 0 3 444 448 599 1261 1372 1419
0 0 0 0 0 0 0 0 0 0 0 0 0 0 0 4 260 375 432 497 231 140 22 255 99 390 531 573 518 826 1503 1564
0 0 0 0 0 0 0 0 0 0 0 0 0 0 0 0 48 221 269 83 124 63 0 261 73 10 484 630 733 654 1155 1583
0 0 3 0 0 0 0 0 0 0 0 0 0 0 0 229 272 231 68 0 0 39 10 8 67 334 128 431 726 883 886 1386
0 3 8 0 0 0 0 0 0 0 0 0 0 0 0 0 0 12 40 0 3 0 0 1 0 69 101 46 211 476 913 973
7 1 0 0 0 11 0 0 0 0 0 0 0 0 0 0 0 0 0 0 0 0 0 0 31 6 55 251 258 264 965 1225
11 9 0 5 79 0 0 0 0 0 0 0 0 0 0 0 0 0 0 0 0 0 0 0 42 198 355 179 342 437 1361 1578
25 9 0 55 151 9 10 0 0 0 0 0 0 0 0 0 0 0 0 0 0 0 0 3 65 34 1515 671 836 908 1842 1979
17 0 6 0 117 55 0 0 0 0 0 0 0 0 0 0 0 0 0 0 0 0 0 0 0 3 9 472 435 1167 1605 2029
14 4 0 0 0 0 0 0 0 0 0 0 0 0 0 0 0 0 0 0 0 0 0 0 0 0 3 2 1 29 1252 2496
0 5 0 0 0 0 1 4 0 0 0 0 0 0 0 2 2 0 0 0 0 0 0 0 0 0 1 0 1 1 441 2099
2 8 0 1 0 12 15 10 0 2 0 6 5 1 0 4 13 21 0 2 0 10 1 0 0 0 0 1 3 1 7 2052
3 0 13 7 8 25 23 12 12 14 23 9 4 1 9 23 15 23 39 3 0 2 0 0 0 0 0 0 3 3 2 902
0 0 2 2 3 8 13 24 17 26 27 20 1 16 41 33 12 62 40 1 1 5 1 1 1 0 0 2 4 3 3 4

GFSFLT2_con_sbcape_069.txt.gz
CAPE
0 0 0 0 0 0 0 0 0 0 0 0 0 0 12 53 240 399 196 99 171 16 0 0 0 0 68 59 20 0 33 45
0 0 0 0 0 0 0 0 0 0 0 0 0 0 42 7 166 332 272 46 68 60 0 10 7 8 71 126 70 24 0 28
0 0 0 0 0 0 0 0 0 0 0 0 0 0 0 0 0 37 15 34 49 73 3 20 31 6 2 140 172 113 47 23
0 0 0 0 0 0 0 0 0 0 0 0 0 0 0 50 24 0 34 92 148 115 11 0 19 28 0 49 191 173 126 44
0 0 0 0 0 0 0 0 0 0 0 0 0 6 3 13 30 37 70 0 2 16 18 7 2 19 2 0 76 189 214 155
0 0 0 0 0 0 0 0 0 0 0 0 0 3 0 0 0 0 0 24 4 0 0 0 0 11 0 10 22 31 192 277
0 0 0 0 0 0 0 0 0 0 0 0 0 1 3 0 0 3 5 2 3 0 0 0 1 0 0 0 65 99 37 187
0 0 0 0 0 0 0 0 0 0 0 0 0 0 0 0 0 3 2 5 4 4 0 0 0 0 3 14 8 280 247 205
0 0 0 0 0 0 0 0 0 0 0 0 0 0 0 0 0 0 2 0 1 2 6 7 1 3 14 70 34 195 476 345
0 0 0 0 0 0 0 0 0 0 0 0 0 0 0 0 0 0 0 0 0 0 0 5 2 0 1 97 270 282 394 577
0 0 0 0 0 0 0 0 0 0 0 0 0 0 0 0 0 0 0 0 0 0 0 0 5 0 2 350 204 0 70 147
0 0 0 0 0 0 0 0 0 0 0 0 0 0 0 0 0 0 0 0 0 0 0 0 0 0 0 14 4 4 40 152
0 0 0 0 0 0 1 0 0 0 0 0 0 0 0 0 0 0 0 0 0 0 0 0 0 0 2 0 1 3 8 3
0 0 0 0 0 0 0 0 0 0 0 0 0 0 0 0 0 0 0 0 0 0 0 0 0 0 0 0 0 8 4 8
0 0 0 0 0 0 0 0 0 0 0 0 0 1 0 0 0 0 0 0 0 0 0 0 0 0 0 0 0 2 4 2
0 0 0 0 0 0 0 0 0 0 0 0 0 1 0 4 1 0 0 0 0 0 0 0 0 0 0 0 0 0 4 4
0 0 0 0 0 0 0 0 1 1 3 4 1 1 1 0 0 0 0 0 0 0 13 4 0 0 0 0 0 0 0 4
0 0 0 0 0 0 0 0 0 17 20 16 21 15 18 3 1 0 0 0 0 2 7 0 0 0 0 0 0 1 3 1
0 0 0 0 0 0 0 6 1 13 23 30 12 15 9 17 13 31 16 1 39 42 0 0 0 0 0 0 0 0 0 1

GFSFLT2_con_sbcape_072.txt.gz
CAPE
0 0 0 0 0 0 0 0 0 0 0 0 0 0 0 0 19 92 334 176 66 0 0 0 0 0 0 0 0 0 0 0
0 0 0 0 0 0 0 0 0 0 0 0 0 0 0 0 0 2 298 132 75 16 0 0 0 0 0 25 4 0 0 13
0 0 0 0 0 0 0 0 0 0 0 0 0 0 0 0 0 32 11 207 65 64 0 0 0 0 0 46 65 4 1 41
0 0 0 0 0 0 0 0 0 0 0 0 0 2 0 3 0 4 55 68 109 59 0 0 0 0 0 0 0 36 14 5
0 0 0 0 0 0 0 0 0 0 0 0 0 0 0 4 4 3 1 0 9 19 17 9 0 0 0 0 2 36 0 13
0 0 0 0 0 0 0 0 0 0 0 0 0 1 0 0 0 0 1 4 2 0 0 1 10 1 49 0 0 29 18 1
0 0 0 0 0 0 0 0 0 0 0 0 0 1 0 0 0 0 1 1 3 5 4 2 3 12 23 36 12 0 99 134
0 0 0 0 0 0 0 0 0 0 0 0 0 0 0 0 0 2 6 6 3 1 3 3 7 7 41 56 50 64 63 146
0 0 0 0 0 0 0 0 0 0 0 0 0 0 0 0 0 0 0 1 7 4 1 3 5 11 5 5 71 77 260 190
0 0 0 0 0 0 0 0 0 0 0 0 0 0 0 0 0 0 0 0 0 3 0 0 1 0 1 23 286 122 111 340
0 0 0 0 0 0 0 0 0 0 0 0 0 0 0 0 0 0 0 0 0 0 0 0 0 0 1 6 5 17 29 63
0 0 0 0 0 0 0 0 0 0 0 0 0 0 0 0 0 0 0 0 0 0 0 0 0 0 0 8 3 3 3 3
0 0 0 0 0 0 0 0 0 0 0 0 0 0 0 0 0 0 0 0 0 0 0 0 0 0 0 1 5 0 4 9
0 0 0 0 0 0 0 0 0 0 0 0 0 0 0 0 0 0 0 0 0 0 0 0 0 0 0 0 5 3 2 2
0 0 0 0 0 0 0 0 0 0 0 0 0 0 0 0 0 0 0 0 0 0 0 0 0 0 0 0 0 1 2 1
0 0 0 0 0 0 0 0 0 0 0 0 1 1 0 0 0 0 0 0 0 0 0 0 0 0 0 0 0 0 2 2
0 0 0 0 0 0 0 0 0 0 1 5 9 9 8 4 0 0 0 0 0 0 0 2 4 0 0 0 0 0 2 1
0 0 0 0 0 0 0 0 0 3 4 7 22 19 17 8 7 13 5 1 0 0 0 0 15 3 0 0 0 0 2 1
0 0 0 0 0 0 0 0 10 10 4 0 1 9 10 17 2 1 4 26 28 7 1 1 0 0 0 0 0 0 3 5

GFSFLT2_con_sbcape_075.txt.gz
CAPE
0 0 0 0 0 0 0 0 0 0 0 0 0 0 0 9 24 108 342 258 557 427 175 193 208 300 359 561 727 608 639 986
0 0 0 0 0 0 0 0 0 0 0 0 1 2 1 5 8 13 124 498 546 714 264 266 253 286 310 389 662 927 691 786
0 0 0 0 0 0 0 0 0 0 0 6 7 6 8 8 8 8 301 433 723 654 356 309 270 252 261 316 393 437 454 887
0 0 0 0 0 0 0 0 0 0 0 1 7 1 3 5 4 7 3 164 526 648 330 338 278 248 229 340 323 343 564 629
0 0 0 0 0 0 0 0 0 0 0 0 1 0 0 1 2 3 5 7 10 62 159 467 301 245 211 240 252 346 495 313
0 0 0 0 0 0 0 0 0 0 0 0 0 0 0 0 2 2 2 3 4 5 7 18 78 426 416 298 232 337 377 419
0 0 0 0 0 0 0 0 0 0 0 0 0 0 0 0 0 0 0 0 2 4 5 6 8 6 118 353 353 386 560 529
0 0 0 0 0 0 0 0 0 0 0 0 0 0 0 0 0 0 0 0 0 1 4 1 10 9 4 7 181 316 383 713
0 0 0 0 0 0 0 0 0 0 0 0 0 0 0 0 0 0 0 0 0 0 0 7 7 11 2 4 76 471 575 624
0 0 0 0 0 0 0 0 0 0 0 0 0 0 0 0 0 0 0 0 0 0 0 0 1 0 0 2 11 214 832 679
0 0 0 0 0 0 0 0 0 0 0 0 0 0 0 0 0 0 0 0 0 0 0 0 0 2 3 0 8 4 11 101
0 0 0 0 0 0 0 0 0 0 0 0 0 0 0 0 0 0 0 0 0 0 0 0 0 0 6 0 6 6 4 11
0 0 0 0 0 0 0 0 2 0 0 0 0 0 0 0 0 0 0 0 0 0 0 0 0 0 2 7 4 4 3 0
0 0 0 0 0 0 0 0 0 0 0 0 0 0 0 0 0 0 0 0 0 0 0 0 0 0 4 5 16 5 0 0
0 0 0 0 0 0 0 0 0 0 0 0 0 0 0 0 0 0 0 0 0 0 0 0 0 0 4 9 18 11 0 0
0 0 0 0 0 0 0 0 0 0 0 1 1 2 2 3 3 1 0 0 0 2 1 0 0 0 0 12 29 4 1 0
0 0 0 0 0 0 0 0 0 0 1 5 7 6 10 11 13 18 21 15 14 17 15 9 2 0 0 3 32 9 1 0
0 0 0 0 0 0 0 0 0 1 2 10 8 9 9 11 4 10 27 27 41 53 38 21 25 30 16 17 18 3 5 6
0 0 0 0 0 0 0 0 0 2 6 5 5 7 13 18 19 22 26 22 10 21 7 29 3 12 14 9 0 0 2 4

GFSFLT2_con_sbcape_078.txt.gz
CAPE
0 0 0 0 0 0 8 4 11 0 0 0 0 36 87 31 88 299 471 1128 1087 851 744 741 776 792 907 1125 1508 1596 1491 1664
0 0 0 0 0 0 0 1 5 0 0 17 0 4 7 7 12 201 560 882 1112 1147 846 772 814 898 1047 1184 1395 1631 1458 1477
0 0 0 0 0 0 0 0 2 12 18 1 6 6 9 10 11 22 121 641 828 836 1029 861 831 894 968 1146 1287 1543 1529 1463
0 0 0 0 0 0 1 0 0 21 26 7 7 2 4 8 9 10 12 7 5 100 904 1013 950 993 985 980 967 1186 1252 1580
0 0 0 0 0 0 0 0 6 0 12 8 14 11 4 4 5 5 4 2 7 11 14 69 174 983 919 918 877 867 939 901
6 0 0 0 0 0 0 2 22 0 5 9 9 13 12 8 0 0 0 1 3 6 14 12 18 65 210 924 817 759 852 1034
0 0 0 0 0 0 0 0 1 0 2 5 8 3 2 1 0 0 0 0 0 0 2 9 8 13 11 19 282 1112 1012 1012
0 0 0 0 0 0 0 0 0 0 0 4 3 0 0 0 0 0 0 0 0 0 0 0 1 4 0 5 11 548 1085 1131
0 0 0 0 0 0 0 0 0 0 0 0 0 0 0 0 0 0 0 0 0 0 0 0 0 0 0 0 7 1 630 1292
0 0 0 0 0 0 0 0 0 0 0 0 0 0 0 0 0 0 0 0 0 0 0 0 0 0 0 1 4 2 0 1
0 0 0 0 0 0 0 0 0 0 0 0 0 0 0 0 0 0 0 0 0 0 0 0 0 0 0 0 4 5 0 4
0 0 0 0 0 0 0 0 0 0 0 0 0 0 3 0 0 0 0 0 0 0 0 0 0 0 0 0 0 7 5 6
0 0 0 0 0 0 0 0 0 0 0 0 0 0 0 0 0 0 0 0 0 0 0 0 0 0 0 0 0 1 3 3
5 4 0 0 0 0 0 0 0 0 0 0 0 0 0 0 0 0 0 0 0 0 0 0 0 0 0 0 0 2 4 2
0 18 0 0 2 0 0 0 0 0 0 0 0 0 0 0 0 0 0 0 0 0 0 0 0 0 0 0 0 1 5 5
0 0 0 0 0 0 0 0 0 0 0 0 0 0 0 0 0 1 4 6 9 11 8 10 8 7 9 3 1 1 6 9
0 0 0 0 0 0 0 0 0 0 0 0 0 1 4 2 4 7 15 8 12 23 22 5 1 15 24 37 31 6 6 8
0 0 0 0 0 0 0 0 0 0 0 1 3 11 4 11 8 5 13 14 21 19 34 28 21 23 26 10 9 30 39 7
2 0 0 0 0 0 0 0 0 0 3 3 7 9 9 10 5 5 8 23 25 30 13 19 22 32 30 29 16 1 5 34

GFSFLT2_con_sbcape_081.txt.gz
CAPE
34 17 2 8 7 1 42 46 31 116 152 139 138 178 49 56 413 741 204 1077 845 791 524 591 621 413 816 1462 1830 2068 1878 2682
0 0 0 0 3 9 6 61 57 135 150 212 74 90 11 8 36 360 1182 702 354 583 802 801 783 529 768 1150 1620 2054 2052 1985
0 0 0 0 0 18 49 57 120 109 296 166 43 14 8 9 9 9 24 220 270 393 829 515 1002 1013 966 1140 1462 1860 2039 2136
0 0 0 0 18 6 24 43 19 26 242 52 32 31 6 10 11 9 9 9 11 14 39 256 358 536 895 1089 1279 1606 1860 2656
0 0 0 0 0 0 23 52 77 44 219 111 88 71 2 2 2 3 3 3 1 4 4 10 38 506 361 163 829 1187 1591 1777
47 0 0 0 0 0 0 18 60 267 202 163 72 122 20 0 1 0 0 0 1 1 6 9 10 12 40 219 534 508 1126 1515
0 0 0 2 0 0 0 0 65 445 252 148 68 35 16 10 0 0 1 0 0 0 0 1 3 7 5 10 127 508 1396 1406
0 0 0 0 0 0 0 0 12 175 119 57 17 4 1 0 0 0 0 0 0 0 0 0 0 1 0 4 7 31 110 409
9 0 0 0 0 0 0 0 0 208 143 16 8 0 0 0 0 0 0 0 0 0 0 0 0 0 0 0 0 0 0 0
7 0 0 0 0 0 0 0 0 17 16 1 2 0 1 1 0 0 0 0 0 0 0 0 0 0 0 0 1 0 0 0
1 13 0 0 0 0 0 0 0 0 0 0 0 0 2 0 0 0 0 0 0 0 0 0 0 0 0 0 0 8 1 0
0 5 0 4 0 0 0 0 0 0 0 0 0 0 1 0 0 0 0 0 0 0 0 0 0 0 0 0 0 0 0 3
0 0 9 0 0 0 0 0 0 0 1 0 0 0 0 0 0 0 0 0 0 0 0 0 0 0 0 0 0 0 0 1
4 16 4 0 0 0 0 0 0 0 0 0 0 0 0 0 0 0 0 0 0 0 0 0 0 0 0 0 0 0 0 0
15 113 11 0 1 0 0 3 0 0 0 0 0 0 0 0 0 0 0 4 1 2 2 1 4 3 1 2 3 1 0 0
0 7 1 0 0 0 0 0 0 0 0 0 0 0 0 0 0 0 3 5 3 6 8 9 12 11 8 7 6 7 13 3
0 5 0 1 0 0 0 0 0 0 0 0 0 0 0 1 5 4 3 4 7 10 9 13 14 10 9 20 21 17 8 4
8 17 10 4 4 0 0 0 0 0 0 0 0 3 2 8 7 5 7 7 8 8 11 11 11 15 17 17 15 17 25 5
27 14 6 6 0 0 0 0 0 0 0 0 1 2 2 6 10 1 5 4 8 10 9 10 12 9 7 17 14 25 17 22

GFSFLT2_con_sbcape_084.txt.gz
CAPE
2 0 14 11 0 39 62 35 27 322 223 222 120 138 163 252 643 546 832 945 591 656 594 944 226 570 1005 2047 2455 2597 2409 2724
24 52 63 17 0 8 14 45 87 450 335 273 277 186 57 50 38 4 13 539 316 268 89 989 382 653 1323 2143 2468 2513 2299 2659
44 0 5 1 0 5 3 22 41 362 251 248 147 92 15 7 7 8 5 22 118 34 0 296 614 273 943 2135 2412 2591 2556 2542
3 0 0 0 6 1 19 17 25 310 203 56 83 24 4 4 8 12 5 2 8 5 1 5 4 575 659 345 1597 2150 2350 2714
26 0 0 0 0 0 17 27 145 47 253 158 135 8 1 1 2 7 7 9 10 10 4 2 2 2 23 355 555 947 2135 2565
1 1 0 0 0 0 0 2 49 559 359 224 221 59 0 0 0 2 5 7 7 8 6 16 6 5 11 38 21 382 914 437
0 0 3 0 0 0 0 0 444 523 263 257 164 90 10 1 1 0 0 0 0 0 0 2 6 3 6 12 6 48 281 455
0 0 0 0 0 0 0 0 117 231 320 89 6 19 11 2 0 0 0 0 0 0 0 0 0 0 2 10 5 1 5 24
0 0 0 0 0 0 0 0 485 509 86 30 1 0 3 0 0 0 0 0 0 0 0 0 0 0 0 0 0 0 0 0
1 1 0 0 0 0 0 0 339 486 207 13 1 0 1 0 0 0 0 0 0 0 0 0 0 0 0 1 0 0 0 0
0 2 5 0 0 0 0 1 135 328 113 2 0 0 0 0 0 0 0 0 0 0 0 0 0 0 0 0 6 0 1 6
15 3 0 22 0 0 0 28 8 22 70 9 2 0 0 0 0 0 0 0 0 0 0 0 0 0 0 0 0 0 0 3
30 28 50 1 0 0 0 73 9 8 1 1 2 0 0 0 0 0 0 0 0 0 0 0 0 0 0 0 0 0 0 0
4 48 77 0 0 0 43 5 0 0 2 7 0 0 0 0 0 0 0 0 0 0 0 0 0 0 0 6 9 12 13 4
110 178 13 6 8 4 0 8 1 0 0 0 0 0 0 0 0 0 0 0 0 0 0 0 0 0 0 6 11 14 7 5
10 97 14 1 0 0 0 0 0 0 0 0 0 0 0 0 0 2 4 0 0 0 0 3 1 3 0 3 17 10 15 16
0 5 1 0 0 0 0 0 0 0 0 0 0 0 0 0 2 1 3 5 3 2 3 5 3 4 3 9 14 2 5 2
26 21 30 24 23 8 0 0 0 0 0 0 0 1 0 1 0 3 4 3 7 8 10 8 5 6 4 4 7 5 4 1
47 25 15 0 0 1 1 0 0 0 0 0 0 0 0 3 3 0 1 0 1 3 6 11 12 7 6 4 8 5 2 1

GFSFLT2_con_sbcape_087.txt.gz
CAPE
0 0 0 0 0 0 0 1 10 374 158 124 119 123 245 269 101 0 0 0 0 0 98 319 26 313 559 896 1123 871 1078 1058
0 1 0 0 0 0 0 0 23 432 293 330 156 22 72 49 65 20 61 239 24 71 64 27 51 385 758 1062 1178 1256 1256 1342
2 0 0 0 0 0 0 0 0 206 204 240 17 8 0 9 36 21 13 168 238 131 2 3 1 128 600 1032 1492 1633 1456 1502
7 11 6 2 0 0 0 0 13 232 158 55 0 0 0 0 17 2 5 2 42 11 36 36 1 5 21 26 249 626 1656 1758
0 0 0 0 0 0 0 0 0 78 203 67 41 0 4 1 1 3 2 2 2 2 3 2 1 7 3 19 90 209 235 1322
0 0 0 0 0 0 0 0 190 473 151 86 32 4 2 0 0 1 2 2 3 3 2 3 2 1 1 2 52 47 151 27
0 0 0 0 0 0 0 370 454 338 189 140 46 0 0 0 0 0 0 0 0 0 1 2 2 2 4 1 4 1 11 42
0 0 0 0 0 0 0 294 365 358 251 134 2 1 7 1 0 0 0 0 0 0 0 0 0 1 4 1 1 3 0 2
0 0 0 0 0 0 100 569 450 261 142 82 23 0 0 0 0 0 0 0 0 0 0 0 0 0 0 1 0 0 0 1
0 0 0 0 0 0 0 699 217 106 45 0 0 0 0 0 0 0 0 0 0 0 0 0 0 0 1 2 0 0 0 0
0 0 0 0 0 0 274 669 371 184 15 0 0 0 0 0 0 0 0 0 0 0 0 0 0 0 0 0 0 0 0 0
16 0 0 0 0 0 0 445 331 0 0 0 0 0 0 0 0 0 0 0 0 0 0 0 0 0 0 0 0 0 0 0
0 0 2 0 0 0 3 26 156 0 0 0 0 0 0 0 0 0 0 0 0 0 0 0 0 0 0 0 0 0 0 0
1 10 4 0 0 6 70 0 0 0 0 0 0 0 0 0 0 0 0 0 0 0 0 0 0 0 0 0 0 0 0 0
131 9 0 0 0 0 0 0 0 0 0 0 0 0 0 0 0 0 0 0 0 0 0 0 0 0 0 0 0 0 0 0
88 82 1 0 0 0 0 0 0 0 0 0 0 0 0 0 0 0 0 0 0 0 0 0 0 0 0 0 0 0 0 0
2 16 1 0 0 0 0 0 0 0 0 0 0 0 0 0 0 0 0 0 0 0 0 0 0 0 0 0 0 0 0 0
0 34 28 36 0 0 0 0 0 0 0 0 0 0 0 0 0 0 0 0 0 0 0 0 0 0 0 0 0 0 0 0
32 15 4 2 1 16 0 0 0 0 0 0 0 0 0 0 0 0 0 0 0 0 0 0 0 0 0 0 0 0 0 0

GFSFLT2_con_sbcape_090.txt.gz
CAPE
0 0 0 0 0 0 0 0 0 124 55 53 111 204 98 31 185 97 43 21 41 25 95 116 92 218 652 628 283 275 359 476
0 0 0 0 0 0 0 0 0 146 104 79 165 202 180 212 22 59 59 10 2 0 126 83 49 58 298 896 681 420 596 432
0 0 0 0 0 0 0 0 0 107 101 180 69 25 19 20 33 52 45 88 267 30 64 55 33 70 203 479 683 763 802 746
0 0 0 0 0 0 0 0 1 145 190 35 0 1 8 23 6 3 2 21 127 71 73 32 41 38 55 143 193 193 218 507
0 0 0 0 0 0 0 0 0 58 68 26 1 0 0 0 13 2 3 2 2 1 28 43 14 18 73 111 99 69 73 146
0 0 0 0 0 0 0 0 154 118 137 84 5 8 3 1 2 2 4 4 3 3 1 1 2 30 48 118 54 43 65 14
0 0 0 0 0 0 0 0 47 128 55 61 1 0 0 0 0 0 0 3 3 2 2 2 2 1 1 9 19 45 32 37
0 0 0 0 0 0 74 290 396 214 74 4 0 0 0 0 0 0 0 0 0 1 1 1 1 1 1 1 4 0 25 1
0 0 0 0 0 0 258 543 421 190 61 0 0 0 0 0 0 0 0 0 0 0 0 0 1 0 0 0 0 0 1 2
0 0 0 0 0 174 615 428 260 133 11 0 0 0 0 0 0 0 0 0 0 0 0 0 0 0 0 1 1 1 1 1
0 0 0 0 0 0 194 177 331 103 1 0 0 0 0 0 0 0 0 0 0 0 0 0 0 0 0 0 0 0 0 0
0 0 0 0 0 0 60 145 2 0 0 0 0 0 0 0 0 0 0 0 0 0 0 0 0 0 0 0 0 0 0 0
0 0 0 0 0 0 0 0 0 0 0 0 0 0 0 0 0 0 0 0 0 0 0 0 0 0 0 0 0 0 0 0
0 0 0 0 0 0 0 0 0 0 0 0 0 0 0 0 0 0 0 0 0 0 0 0 0 0 0 0 0 0 0 0
4 0 0 0 0 0 0 0 0 0 0 0 0 0 0 0 0 0 0 0 0 0 0 0 0 0 0 0 0 0 0 0
0 0 0 0 0 0 0 0 0 0 0 0 0 0 0 0 0 0 0 0 0 0 0 0 0 0 0 0 0 0 0 0
0 0 0 0 0 0 0 0 0 0 0 0 0 0 0 0 0 0 0 0 0 0 0 0 0 0 0 0 0 0 0 0
0 0 0 0 0 0 0 0 0 0 0 0 0 0 0 0 0 0 0 0 0 0 0 0 0 0 0 0 0 0 0 0
0 0 0 0 0 0 0 0 0 0 0 0 0 0 0 0 0 0 0 0 0 0 0 0 0 0 0 0 0 0 0 0

GFSFLT2_con_sbcape_093.txt.gz
CAPE
0 0 0 0 0 0 0 0 0 1 16 58 254 117 131 131 80 23 34 18 59 94 164 162 131 462 294 136 39 5 63 258
0 0 0 0 0 0 0 2 0 3 16 28 200 194 91 16 28 7 3 5 40 49 123 112 56 129 435 357 189 132 72 155
0 0 0 0 0 0 0 0 0 0 0 115 68 50 75 0 46 12 13 20 2 64 79 36 68 152 248 471 479 360 325 220
0 0 0 0 0 0 0 0 0 0 10 2 13 0 0 2 7 33 37 68 64 38 42 25 60 68 111 187 179 139 155 375
0 0 0 0 0 0 0 0 89 68 0 39 0 1 1 0 0 2 25 3 79 90 66 94 121 129 83 40 65 16 10 79
0 0 0 0 0 0 0 0 0 0 78 23 10 0 15 12 3 1 3 3 2 1 4 25 26 68 99 117 96 20 39 42
0 0 0 0 0 0 0 0 14 23 65 73 1 0 15 1 1 4 4 3 3 1 1 2 3 33 123 107 68 37 35 22
0 0 0 0 0 0 32 143 82 46 43 63 0 0 0 0 0 2 3 4 4 3 1 1 3 2 3 1 4 12 31 34
0 0 0 0 0 0 84 311 125 37 29 0 0 2 0 0 0 0 0 1 1 1 2 2 1 1 2 1 0 1 1 2
0 0 0 0 0 0 514 329 181 23 5 7 1 0 0 0 0 0 0 0 0 0 0 1 2 1 0 0 0 0 0 3
0 0 0 0 0 0 0 263 136 21 0 0 0 0 0 0 0 0 0 0 0 0 0 0 0 0 0 0 0 0 0 0
0 0 0 0 0 0 0 147 116 57 0 0 0 0 0 0 0 0 0 0 0 0 0 0 0 0 0 0 0 0 0 0
0 0 0 0 0 0 0 0 0 0 0 0 0 0 0 0 0 0 0 0 0 0 0 0 0 0 0 0 0 0 0 0
0 0 2 0 0 0 0 0 0 0 0 0 0 0 0 0 0 0 0 0 0 0 0 0 0 0 0 0 0 0 0 0
0 0 0 0 0 0 0 0 0 0 0 0 0 0 0 0 0 0 0 0 0 0 0 0 0 0 0 0 0 0 0 0
0 0 0 0 0 0 0 0 0 0 0 0 0 0 0 0 0 0 0 0 0 0 0 0 0 0 0 0 0 0 0 0
0 0 0 0 0 0 0 0 0 0 0 0 0 0 0 0 0 0 0 0 0 0 0 0 0 0 0 0 0 0 0 0
0 0 0 0 0 0 0 0 0 0 0 0 0 0 0 0 0 0 0 0 0 0 0 0 0 0 0 0 0 0 0 0
0 0 0 0 0 0 0 0 0 0 0 0 0 0 0 0 0 0 0 0 0 0 0 0 0 0 0 0 0 0 0 0

GFSFLT2_con_sbcape_096.txt.gz
CAPE
0 0 0 0 0 0 0 0 5 0 0 9 148 121 156 121 33 18 15 42 99 59 38 86 73 263 144 122 40 2 1 110
0 0 0 0 0 0 0 0 0 0 0 0 236 189 89 137 47 18 32 1 26 21 7 44 72 224 193 136 53 29 17 77
0 0 0 0 0 0 0 0 0 0 0 68 114 190 123 49 12 15 24 71 57 114 94 88 92 164 418 187 70 113 61 17
0 0 0 0 0 0 0 0 0 0 0 35 107 200 18 5 8 1 0 1 25 65 72 56 29 145 209 218 117 144 173 165
0 0 0 0 0 0 0 0 2 0 0 84 81 80 12 2 1 18 15 52 1 34 47 42 43 82 134 59 15 1 6 97
0 0 0 0 0 0 0 0 0 0 0 100 61 7 48 13 3 17 12 73 134 64 82 57 49 108 84 28 7 1 35 44
0 0 0 0 0 0 0 0 0 0 0 4 43 21 87 12 2 2 4 2 10 53 39 8 49 119 128 127 74 50 33 15
0 0 0 0 0 0 1 21 95 14 45 5 13 65 13 1 4 4 10 4 2 5 2 1 1 6 10 23 58 42 28 20
0 0 0 0 0 0 0 74 96 91 36 79 55 26 0 0 1 5 7 3 7 3 2 2 2 2 1 1 1 2 2 2
0 0 0 0 0 0 53 168 88 41 64 124 42 0 0 0 0 0 0 0 0 3 4 1 0 0 0 0 0 0 0 0
0 0 0 0 0 0 0 102 101 65 81 1 0 0 0 0 0 0 0 0 0 0 2 0 0 0 0 0 0 0 0 0
0 0 0 0 0 0 0 43 145 37 0 0 0 0 0 0 0 0 0 0 0 0 0 0 0 0 0 0 0 0 0 0
0 0 0 0 0 0 0 0 37 7 0 0 0 0 0 0 0 0 0 0 0 0 0 0 0 0 0 0 0 0 0 0
0 0 0 0 0 0 0 0 0 0 0 0 0 0 0 0 0 0 0 0 0 0 0 0 0 0 0 0 0 0 0 0
0 0 0 0 0 0 0 0 0 0 0 0 0 0 0 0 0 0 0 0 0 0 0 0 0 0 0 0 0 0 0 0
0 0 0 0 0 0 0 0 0 0 0 0 0 0 0 0 0 0 0 0 0 0 0 0 0 0 0 0 0 0 0 0
0 0 0 0 0 0 0 0 0 0 0 0 0 0 0 0 0 0 0 0 0 0 0 0 0 0 0 0 0 0 0 0
0 0 0 0 0 0 0 0 0 0 0 0 0 0 0 0 0 0 0 0 0 0 0 0 0 0 0 0 0 0 0 0
0 0 0 0 0 0 0 0 0 0 0 0 0 0 0 0 0 0 0 0 0 0 0 0 0 0 0 0 0 0 0 0

GFSFLT2_con_sbcape_102.txt.gz
CAPE
0 0 0 0 11 0 1 56 59 160 83 262 244 415 367 287 239 468 280 292 353 513 800 825 878 1076 999 1020 1321 1323 1109 1383
0 0 0 0 0 13 40 61 63 157 119 176 548 564 556 316 456 494 313 158 293 479 740 614 746 1023 889 1102 1303 1092 961 1065
0 0 0 0 0 0 4 12 21 79 72 503 563 767 803 574 625 665 535 471 313 401 742 917 985 829 508 1101 1240 1130 935 815
0 0 0 2 0 0 0 0 2 44 194 638 857 978 996 1030 727 640 475 623 688 448 480 834 858 587 545 812 776 1063 927 1074
59 28 0 0 0 0 1 5 11 3 0 626 883 1092 997 1143 1279 1177 893 781 840 920 680 700 341 181 192 457 1041 804 1176 1000
81 92 56 10 0 0 0 1 0 3 1 632 675 987 1100 928 875 1027 984 899 961 1028 957 1044 697 377 178 179 421 590 891 1010
48 14 5 53 41 0 0 0 6 7 1 6 665 975 1135 860 714 781 684 743 804 812 865 975 1025 678 403 145 54 89 231 258
82 64 64 38 4 0 0 0 0 2 20 341 798 975 995 824 693 688 830 781 905 853 870 914 954 887 643 540 324 229 67 35
102 129 110 88 63 15 17 38 29 17 137 624 1011 963 916 867 764 778 638 666 878 1028 972 1000 1150 990 913 586 373 295 75 40
181 181 117 172 70 51 28 88 483 441 547 747 946 782 781 702 636 522 431 229 63 10 4 7 129 442 446 397 409 380 263 136
195 217 160 62 49 28 32 222 566 779 647 592 633 452 268 243 282 261 86 9 4 5 3 2 1 1 1 1 1 1 2 5
218 133 135 150 0 0 1 225 328 574 477 459 257 503 324 175 182 4 5 4 4 3 3 1 0 0 0 0 0 0 0 0
126 126 208 158 27 20 139 169 241 345 345 314 364 133 241 76 18 6 5 4 3 1 3 3 0 0 0 0 0 0 0 0
280 192 160 282 245 271 280 105 209 299 90 9 21 79 155 11 7 3 1 0 0 0 0 0 0 0 0 0 0 0 1 0
415 474 382 367 368 391 348 205 318 366 7 33 52 74 21 6 2 1 0 0 0 0 0 0 1 0 0 0 0 0 0 0
442 303 214 160 204 510 510 370 387 271 13 9 32 17 19 5 2 0 0 0 0 0 0 0 0 0 0 0 0 0 0 0
418 210 135 99 115 331 572 545 365 242 74 0 4 5 2 0 0 4 0 0 0 0 0 0 0 0 0 0 0 0 0 0
434 424 435 167 26 114 383 459 385 217 44 3 0 1 1 2 0 0 0 0 0 0 0 0 0 0 0 0 0 0 0 0
424 205 216 38 0 1 88 199 268 267 170 69 20 0 0 3 0 1 0 0 0 0 0 0 0 0 0 0 0 0 0 0

GFSFLT2_con_sbcape_105.txt.gz
CAPE
0 0 22 16 79 112 196 12 74 148 307 303 450 349 402 632 626 238 298 64 138 265 605 639 696 766 1054 1252 1433 1372 1293 1536
0 0 0 2 32 50 37 34 109 74 208 310 345 415 403 507 692 747 493 227 253 276 366 425 675 782 1084 1125 1213 1169 999 1030
0 0 0 0 0 2 52 35 51 94 213 422 621 646 755 700 544 787 497 358 249 444 335 644 852 789 970 935 1615 1172 1055 950
32 3 0 2 0 0 13 27 22 52 443 683 632 595 721 645 579 879 665 475 242 289 579 1369 1304 1268 1254 1698 1262 1299 1194 1295
70 31 2 0 4 3 0 14 63 47 371 793 940 1068 1030 889 907 1066 1088 618 356 295 781 1427 1857 1667 1393 1419 1168 1229 1370 1305
30 24 0 27 0 6 13 51 32 50 231 776 743 1080 1359 1464 1369 1205 1019 1012 1038 869 696 662 575 786 1031 1093 877 1058 758 1249
34 7 10 9 20 5 4 3 57 67 66 79 739 911 1389 1563 1453 1713 1489 1093 1068 1230 1447 1530 1249 1062 789 398 387 311 412 884
97 9 17 19 42 27 40 15 11 10 33 214 1057 1213 1568 1391 991 1139 1110 1211 1318 1295 1278 1465 1460 1288 1141 779 637 387 364 515
113 47 64 34 41 53 32 29 44 67 38 744 712 984 1302 1292 944 894 1279 1082 1240 1078 1134 1204 1330 1303 1165 859 540 619 291 280
194 74 96 134 102 118 56 90 88 212 102 690 812 1263 1178 1160 942 882 726 988 886 654 611 669 1278 1472 1339 1184 1007 687 674 365
263 115 48 59 154 148 86 277 574 478 426 564 1230 1200 701 712 657 705 484 134 28 30 6 5 51 550 986 919 770 700 570 528
344 287 169 196 45 24 74 147 192 161 776 874 879 918 905 524 305 231 12 11 9 6 7 2 3 3 2 3 4 3 2 44
225 202 217 98 24 2 139 317 210 501 632 489 747 621 810 470 121 9 8 8 6 2 5 6 3 1 5 1 3 3 0 0
345 207 114 231 269 393 418 327 278 499 431 352 163 287 19 3 7 9 5 3 1 1 2 0 0 0 1 1 0 1 0 5
226 419 505 466 502 567 434 350 384 520 320 296 214 9 9 7 8 5 2 1 0 0 2 3 0 0 0 0 0 0 6 16
381 404 384 377 584 747 725 528 478 537 190 118 7 7 9 25 7 8 4 0 0 0 0 0 0 0 0 0 0 0 0 4
407 221 322 227 373 631 829 690 537 419 241 0 1 7 5 10 18 21 7 1 0 0 0 0 0 0 0 0 0 0 5 0
609 824 646 401 225 372 510 714 490 318 151 2 0 1 1 1 2 1 7 17 0 0 0 0 0 0 0 0 0 0 0 0
723 549 614 326 124 73 198 339 593 521 191 2 0 0 0 0 0 0 0 0 11 7 0 0 0 0 0 0 0 0 0 0

GFSFLT2_con_sbcape_108.txt.gz
CAPE
0 0 31 7 38 60 65 3 51 107 64 179 89 142 187 193 96 22 57 0 95 153 148 148 826 542 445 1970 2199 2009 1889 2180
0 0 0 9 9 23 11 113 126 32 3 153 471 478 773 431 240 153 28 43 262 174 85 116 481 533 253 757 1835 1877 1768 1849
6 0 0 0 0 0 7 13 15 21 41 268 310 597 564 973 433 249 59 47 451 393 382 42 80 176 590 1425 1787 1614 1627 1608
27 5 0 0 0 2 0 1 2 15 222 233 228 199 309 464 666 274 262 534 382 432 691 362 322 776 401 1255 1474 1321 1034 1791
34 26 3 0 0 1 0 0 26 18 352 150 39 277 820 613 1046 1360 1165 1078 642 538 162 57 0 1 489 1019 949 1370 1214 1444
20 8 39 41 0 1 16 2 0 0 747 719 740 633 667 931 1243 1372 1389 1110 842 656 445 131 0 0 176 1146 1133 940 961 1603
0 13 9 14 6 14 0 1 22 47 116 724 679 678 623 1212 1489 1590 1460 1197 1051 747 859 1490 452 491 668 421 766 1067 1065 1157
28 3 7 5 0 26 25 4 0 13 16 414 872 991 1029 1407 1821 1642 1225 1050 1348 1488 1230 1300 1277 934 690 711 741 591 421 467
29 19 4 0 5 7 62 34 15 18 372 117 548 715 295 929 1207 1506 1430 1477 1644 1278 1284 1611 1532 1637 1248 1381 1251 950 610 648
126 96 80 105 113 95 21 47 239 478 474 287 587 0 0 567 1009 1034 1120 683 580 876 1116 1236 1378 1212 1123 1376 1150 964 809 732
109 89 86 175 127 82 7 284 303 273 133 2 154 163 439 658 677 669 148 7 5 4 4 2 29 656 1135 1260 1164 1085 960 561
427 118 229 213 106 29 1 173 351 385 408 42 287 225 371 525 167 1 2 4 6 9 5 2 2 1 0 2 217 241 498 409
238 238 384 134 64 0 14 324 236 255 398 628 657 221 24 5 6 5 7 5 2 4 4 3 3 4 4 5 2 1 0 0
264 138 133 28 309 137 337 405 219 341 320 471 563 127 5 3 5 5 4 3 3 1 4 2 0 0 1 1 0 0 0 0
112 254 249 384 500 439 273 376 498 430 497 129 2 6 6 7 5 4 3 4 3 1 0 0 0 0 0 0 0 0 0 0
552 166 49 332 486 650 669 657 636 496 82 0 2 4 6 8 7 5 1 0 0 0 0 0 0 0 0 0 0 0 0 0
337 481 472 312 541 634 782 656 667 343 24 2 2 5 7 8 12 18 5 0 0 0 0 0 0 0 0 0 0 0 0 0
518 425 903 499 303 374 886 770 583 353 109 5 1 0 0 0 0 0 5 12 0 0 0 0 0 0 0 0 0 0 0 0
783 585 491 443 139 132 222 953 685 439 238 21 4 0 0 1 0 0 0 0 3 0 0 0 0 0 0 0 0 0 0 0

GFSFLT2_con_sbcape_111.txt.gz
CAPE
0 0 0 0 103 34 24 7 1 62 15 227 75 71 66 8 0 0 4 35 69 55 111 86 93 580 961 774 575 917 887 970
0 0 0 27 12 0 2 78 48 52 22 166 94 55 53 58 0 0 0 0 21 51 70 178 120 377 1136 1036 664 637 1059 869
3 0 0 0 0 0 0 0 13 130 31 79 0 50 15 37 65 1 0 0 0 24 78 60 144 409 710 970 1178 906 961 793
0 2 0 0 0 0 0 0 0 9 41 12 9 110 56 2 14 31 12 0 0 75 80 151 244 226 393 272 820 883 841 752
1 6 12 1 0 0 0 0 0 0 14 90 102 0 70 29 143 180 89 0 151 322 76 141 107 50 53 67 575 840 671 947
0 0 0 5 6 6 0 0 0 1 344 80 18 23 5 0 17 388 156 37 276 261 131 157 1 0 0 0 6 358 923 797
1 4 0 0 0 2 4 0 0 180 475 189 48 33 111 0 170 304 168 170 264 196 100 36 0 0 2 0 35 129 266 571
7 3 1 2 5 0 0 8 3 413 327 88 8 166 112 28 448 759 687 552 567 375 259 5 0 0 0 0 1 415 186 279
7 31 3 0 14 16 30 314 355 691 470 350 0 2 43 0 70 32 283 286 757 864 865 692 103 0 223 158 309 233 138 163
109 20 38 138 5 3 283 414 223 340 459 24 0 0 5 175 176 3 3 1 7 24 23 105 802 468 538 368 338 271 233 398
97 26 123 182 58 0 107 201 216 382 1 284 91 21 1 1 1 4 4 2 5 5 6 4 3 291 559 524 281 340 332 359
177 207 165 179 63 3 0 186 377 422 391 437 305 83 216 4 1 3 1 2 4 5 3 3 4 3 0 113 201 381 363 321
85 3 133 16 52 94 1 161 437 252 405 127 37 26 4 1 2 1 2 1 1 5 5 6 2 0 0 5 3 3 8 172
63 90 0 9 188 211 102 0 352 405 375 87 2 2 2 3 3 2 1 1 1 1 1 1 1 2 2 2 1 0 0 0
170 196 85 55 42 3 3 508 443 134 0 0 0 1 1 3 2 1 2 1 0 0 0 0 0 0 0 1 0 0 0 0
265 135 199 49 251 244 479 355 201 80 0 0 1 4 4 2 0 0 0 0 0 0 0 0 0 0 0 0 0 0 0 0
210 14 34 201 507 678 791 449 191 12 0 0 0 3 1 0 0 0 0 0 0 0 0 0 0 0 0 0 0 0 0 0
405 59 350 357 458 778 658 521 213 15 0 2 0 0 0 0 0 0 0 0 0 0 0 0 0 0 0 0 0 0 0 0
511 521 118 180 169 780 656 483 191 2 0 0 0 0 0 0 0 0 0 0 0 0 0 0 0 0 0 0 0 0 0 0

GFSFLT2_con_sbcape_114.txt.gz
CAPE
149 232 468 308 221 65 19 7 9 61 16 56 31 0 0 0 0 0 0 21 18 8 13 52 77 315 303 274 162 168 137 250
0 24 302 133 51 9 0 59 21 67 56 70 45 40 0 2 7 0 13 64 65 56 58 28 77 285 508 337 286 257 160 301
0 0 0 0 0 0 0 0 10 51 14 48 35 71 129 44 10 0 13 76 67 77 103 56 99 321 552 470 277 359 420 447
0 0 0 0 0 0 0 0 0 1 0 24 24 31 98 150 156 0 15 6 15 91 102 95 263 556 668 657 400 293 618 385
1 0 0 0 0 0 0 0 0 0 0 20 21 1 3 0 64 202 5 0 0 46 76 98 136 310 620 502 505 425 444 365
0 0 0 0 0 0 0 0 0 0 0 33 132 106 116 267 0 16 61 0 0 16 52 67 64 111 127 38 32 74 237 410
0 0 0 0 0 0 0 0 0 3 162 82 257 43 0 8 4 21 31 8 119 90 78 47 43 33 24 38 26 17 37 207
0 0 0 0 19 313 275 168 392 363 332 72 65 23 0 59 7 0 0 2 197 171 152 27 17 4 0 0 76 139 96 158
0 0 0 33 199 340 271 462 435 186 72 0 0 36 106 50 27 10 4 2 4 93 49 11 4 0 0 0 0 51 70 95
5 0 4 9 46 287 285 237 258 287 9 0 21 27 2 3 0 2 1 3 1 3 4 2 1 0 8 0 2 165 112 94
18 0 34 66 1 0 82 198 318 374 280 14 11 20 4 6 5 5 6 13 7 6 3 4 4 1 146 104 177 173 136 155
4 26 6 11 0 18 0 51 156 224 157 95 85 94 10 6 2 4 2 3 2 5 1 3 1 2 0 46 161 160 101 64
104 10 47 37 2 0 0 0 154 222 100 15 4 1 2 2 2 1 2 1 1 0 1 2 1 2 1 1 2 3 49 74
5 14 0 1 53 91 32 0 342 142 5 1 0 0 0 1 1 2 1 0 0 1 1 0 0 0 2 1 1 1 1 2
0 2 0 0 3 0 0 267 43 32 0 0 0 0 0 3 1 0 0 0 0 0 0 0 0 0 0 1 1 1 1 1
50 7 0 44 0 324 141 142 10 0 0 0 0 1 3 1 0 0 0 0 0 0 0 0 0 0 0 0 0 0 2 1
2 70 10 33 169 399 215 25 0 0 0 0 0 0 0 0 0 0 0 0 0 0 0 0 0 0 0 0 0 0 0 0
35 15 4 40 93 441 163 2 0 0 0 0 0 0 0 0 0 0 0 0 0 0 0 0 0 0 0 0 0 0 0 0
197 0 7 150 583 555 173 7 0 0 0 0 0 0 0 0 0 0 0 0 0 0 0 0 0 0 0 0 0 0 0 0

GFSFLT2_con_sbcape_120.txt.gz
CAPE
539 572 419 248 82 0 0 0 0 12 50 2 22 6 0 30 8 9 4 4 9 0 0 1 0 27 31 0 0 24 39 85
391 537 315 179 7 18 11 21 27 0 27 16 0 3 0 0 0 0 0 0 22 19 0 2 42 42 39 0 9 40 16 55
1 210 353 33 93 0 0 0 3 13 0 18 27 0 0 0 0 0 16 17 33 30 24 22 66 83 60 31 10 24 39 27
0 0 0 0 0 0 0 0 0 0 0 75 125 147 13 22 0 0 18 21 44 53 60 60 94 110 154 109 69 53 52 54
3 0 0 0 0 0 0 0 0 0 0 62 55 29 19 1 12 0 4 43 50 55 73 92 129 170 205 209 179 113 92 85
9 0 0 0 0 0 0 0 0 0 118 141 47 63 17 6 10 15 14 37 17 59 75 94 122 128 200 243 299 215 214 202
0 0 0 0 155 261 211 32 0 32 215 88 79 75 81 1 0 52 69 93 24 33 52 82 127 113 163 221 402 285 271 299
0 0 186 369 219 167 371 412 234 151 29 27 75 9 2 82 21 1 11 23 182 94 155 148 174 172 298 423 413 378 242 328
0 0 39 1 50 223 172 142 85 68 63 213 36 13 8 4 6 6 3 5 38 74 37 57 5 19 34 17 73 79 79 101
0 0 0 0 5 275 311 236 43 71 107 99 7 5 5 5 5 5 5 4 4 4 3 11 3 0 0 0 6 27 37 49
0 0 0 21 4 15 162 261 228 167 90 41 1 0 0 3 3 3 4 4 2 2 2 2 1 1 8 0 0 0 11 29
0 0 36 0 0 13 50 185 245 334 144 111 150 47 6 1 0 1 1 2 1 1 2 2 1 1 25 55 33 32 32 19
0 0 0 0 0 9 128 3 279 164 23 1 21 1 0 0 0 0 0 0 0 0 1 1 1 1 13 2 1 1 0 45
0 0 0 0 0 18 1 21 387 68 0 1 1 1 1 0 0 0 0 0 0 0 0 0 0 1 1 1 2 2 0 12
0 0 0 0 0 0 1 208 265 4 0 0 0 0 0 0 0 0 0 0 0 0 0 0 0 0 0 2 1 1 1 1
19 0 2 0 5 36 178 164 0 0 0 0 0 0 0 0 0 0 0 0 0 0 0 0 0 0 0 2 1 0 1 1
0 1 0 0 0 274 25 0 0 0 0 0 0 0 0 0 0 0 0 0 0 0 0 0 0 0 0 0 0 0 0 1
74 0 14 0 32 146 36 0 0 0 0 0 0 0 0 0 0 0 0 0 0 0 0 0 0 0 0 0 0 0 0 0
80 0 0 3 248 83 15 0 0 0 0 0 0 0 0 0 0 0 0 0 0 0 0 0 0 0 0 0 0 0 0 0

GFSFLT2_con_sbcape_123.txt.gz
CAPE
722 743 577 415 168 84 86 35 29 41 120 62 29 22 5 1 18 49 85 39 24 93 184 256 277 331 312 316 377 369 529 940
852 767 388 559 330 272 150 73 0 15 80 134 155 152 51 54 43 69 77 35 33 46 149 192 248 310 327 351 355 330 437 771
715 839 757 512 496 83 38 39 47 41 20 192 217 179 99 38 97 157 102 135 107 44 132 230 199 238 265 372 364 316 378 538
56 0 0 230 294 315 197 32 29 25 13 228 239 196 189 112 94 85 136 171 113 80 138 234 257 261 246 363 404 364 412 507
189 56 1 89 14 0 0 0 0 0 0 345 290 264 262 261 220 131 137 120 104 99 115 194 239 257 363 446 428 429 455 482
131 159 8 88 227 42 0 0 0 0 87 522 387 296 212 181 250 199 204 117 97 142 213 263 393 441 559 609 230 648 516 501
5 28 3 555 604 715 352 334 0 9 332 528 363 233 181 147 194 211 325 247 238 317 287 327 480 520 461 575 380 387 779 472
0 2 38 464 340 333 695 577 446 473 432 352 278 232 149 16 12 15 14 15 313 282 244 266 434 591 551 332 339 761 339 634
2 0 67 141 207 161 548 666 644 560 593 520 254 49 7 7 8 8 7 6 9 8 144 400 314 328 786 885 897 662 920 831
1 31 31 90 302 531 522 556 410 402 681 339 56 5 6 5 3 3 4 5 4 4 4 4 3 103 213 314 531 355 507 254
23 12 0 136 426 731 569 602 671 479 337 183 91 44 6 5 4 4 4 5 6 4 5 4 3 2 16 216 287 112 87 94
124 139 2 125 100 138 277 369 759 669 534 316 195 359 111 4 2 3 3 2 3 3 4 5 5 5 2 131 217 129 228 108
195 190 142 23 121 213 344 231 777 781 687 630 417 253 4 2 2 1 2 1 1 2 4 5 3 5 35 8 11 15 41 101
209 296 96 242 218 424 340 339 608 435 214 171 22 4 3 1 0 1 0 0 0 0 0 3 3 2 2 1 5 5 11 3
260 249 127 233 275 194 216 572 701 345 61 16 8 2 0 0 0 1 0 0 0 0 0 0 6 6 6 6 6 4 2 2
420 325 87 310 266 305 525 891 570 236 59 9 1 1 5 2 0 0 0 0 0 0 0 0 1 4 6 5 2 3 2 3
553 427 224 407 383 680 745 491 267 166 103 38 0 4 3 0 0 0 0 0 0 0 0 0 0 0 0 0 0 1 3 2
427 711 702 538 535 913 699 493 276 83 0 0 0 3 1 0 0 0 0 0 0 0 0 0 0 0 0 0 0 0 0 0
619 348 470 445 743 953 742 481 99 0 0 0 0 0 0 0 0 0 0 0 0 0 0 0 0 0 0 0 0 0 0 0

GFSFLT2_con_sbcape_129.txt.gz
CAPE
5 0 0 78 145 165 49 119 120 7 367 375 247 226 161 86 82 370 340 170 150 123 180 373 457 640 855 1177 1735 1649 1201 1241
36 122 147 83 236 158 12 19 128 274 37 22 338 644 390 254 175 171 310 405 247 140 186 309 452 591 858 1057 1488 1576 1109 964
83 336 289 190 202 148 161 366 274 237 41 29 743 740 329 158 124 231 360 518 376 151 200 337 405 598 755 990 1271 1465 1091 759
95 49 50 8 38 183 379 143 8 2 101 445 802 841 527 121 29 109 6 582 412 254 221 370 581 720 763 906 1124 1265 1167 991
110 78 187 77 148 48 10 152 111 98 160 409 704 861 741 434 55 17 61 186 366 578 581 492 644 1180 791 955 973 1133 1295 1081
53 10 144 312 201 65 51 270 0 16 0 684 724 822 1014 733 373 112 383 418 465 778 854 593 869 995 1392 1062 1389 1113 1309 1263
94 39 71 54 7 20 223 184 49 92 80 874 932 757 546 362 589 586 483 468 1082 677 715 416 723 1412 1491 1570 1375 1487 1553 1515
58 52 50 27 40 140 145 187 98 44 3 763 996 587 353 311 230 210 139 96 177 238 608 449 413 646 1465 1549 1449 1746 1696 900
126 76 85 92 58 65 238 189 271 256 775 978 938 521 456 246 150 106 40 22 6 9 4 38 166 310 634 1527 1480 1059 1665 1429
58 78 102 117 183 183 178 193 182 366 279 827 1165 482 234 215 139 37 10 16 6 7 37 79 147 267 463 513 1434 1748 1432 1411
61 96 61 34 80 87 76 102 3 185 224 1030 780 397 161 119 91 55 6 4 10 10 4 10 37 149 483 796 930 1326 1332 1565
79 53 73 95 266 182 92 23 25 233 347 806 824 1027 349 158 158 81 44 18 51 55 26 36 16 78 492 1054 692 834 1013 887
132 95 79 329 297 227 50 419 658 237 607 881 855 873 458 266 180 139 151 85 108 133 58 13 2 295 508 427 346 493 809 651
106 108 108 300 229 34 906 767 848 810 1356 945 983 514 372 318 298 224 184 156 99 105 81 59 4 2 28 20 54 172 243 122
158 395 512 392 271 287 471 578 773 1248 1316 1389 964 549 443 382 250 210 139 72 48 61 64 32 23 12 8 9 7 9 9 7
139 94 185 253 273 326 438 618 816 1170 1093 836 682 574 376 276 85 54 86 4 0 3 27 12 12 6 8 8 4 3 6 6
283 135 226 489 462 288 642 871 1133 1228 1112 941 805 552 382 245 148 28 18 4 0 2 6 5 3 3 1 1 4 3 2 4
252 273 644 524 617 730 828 1398 1416 1338 1140 810 605 517 290 234 149 86 26 4 4 7 7 5 2 0 0 1 0 0 0 0
198 278 520 736 789 997 1284 1535 1526 1344 909 662 542 425 331 167 23 4 8 10 8 4 2 0 0 0 0 0 0 0 0 0

GFSFLT2_con_sbcape_132.txt.gz
CAPE
0 0 0 0 162 153 145 29 36 130 27 11 100 151 179 108 402 550 236 202 4 172 554 608 821 845 1629 2287 2328 2068 1770 2316
37 0 0 29 72 81 98 4 121 99 0 0 10 10 265 48 36 55 369 293 241 91 283 554 784 838 1046 2192 2437 2258 1784 1818
14 102 113 367 235 12 69 136 190 139 35 31 9 172 350 328 213 228 184 255 615 506 90 570 432 678 790 1624 2333 2235 1870 1584
34 67 117 100 0 0 222 173 145 45 78 68 405 636 285 66 418 264 185 158 121 121 301 294 782 757 761 1163 1797 1808 1685 2077
10 5 27 104 31 13 25 2 213 177 31 66 0 594 469 40 5 96 99 9 35 97 207 1032 1152 2252 389 952 1324 1666 2013 1582
1 43 45 21 22 120 17 34 144 42 4 0 81 862 885 9 314 395 22 14 22 73 430 1331 1387 2832 847 695 1136 1732 1443 1586
0 46 48 16 8 93 42 62 10 41 37 355 1 268 650 773 468 588 241 397 552 239 30 870 1353 2068 2652 2202 527 2756 2372 2175
0 1 8 36 11 25 45 0 1 67 189 0 0 636 478 271 400 210 61 91 58 662 66 403 571 864 2245 2808 3043 3371 3053 2793
26 46 17 29 44 25 47 43 63 260 431 0 0 0 398 142 93 18 8 27 13 46 232 460 574 545 411 1125 1785 1941 2619 2126
2 0 9 46 48 30 29 53 81 407 354 0 0 301 335 210 138 31 2 6 15 33 134 258 373 218 295 220 454 1476 1555 1773
0 3 4 14 117 86 97 53 4 30 393 98 262 412 188 177 153 70 33 15 39 71 83 45 52 137 269 303 554 762 985 1278
0 1 5 126 119 60 27 11 385 219 311 403 51 360 505 217 172 117 63 74 81 53 42 2 5 24 455 647 521 1016 1030 846
10 5 2 214 113 44 27 229 479 326 0 143 461 399 509 350 188 184 79 123 128 65 4 1 1 173 418 400 409 641 1103 996
43 59 49 146 71 57 374 191 242 460 142 543 287 315 607 583 348 210 169 166 44 56 34 3 0 0 2 4 9 93 194 108
34 25 454 194 129 41 37 75 46 225 262 465 1 57 656 687 485 325 178 106 83 55 57 24 8 0 2 3 4 7 5 5
43 57 10 11 63 57 87 98 123 159 473 866 701 559 567 577 512 335 220 122 77 64 54 64 36 6 3 3 2 4 4 3
111 79 109 44 101 221 136 184 292 386 749 816 619 661 574 540 581 302 218 192 106 56 37 30 66 7 5 6 4 3 3 3
19 450 313 314 159 187 185 359 578 707 1101 973 872 768 565 520 392 275 268 172 231 69 41 9 3 4 10 5 0 2 2 2
172 13 69 185 304 4 0 78 606 1203 1344 983 819 749 590 527 437 241 125 133 14 79 3 7 0 12 0 0 0 0 0 0